Wetterdaten: Samstag, 08.11.2025
Datum Zeit Temp. Aussen Temp. o. S. Temp +5cm Feuchte Auss Luftdruck Regen Sonnenschein Regendauer Solar Windböen Empfang
08.11.2025 00:00 6,3 °C 5,0 °C 2,2 °C 92 % 1012,4 hPa 0,0 l/m² 0 min 0 min 0 W/m² 6,4 km/h (2 Bft) 100,00 %
08.11.2025 00:02 6,2 °C 5,0 °C 2,2 °C 92 % 1012,4 hPa 0,0 l/m² 0 min 0 min 0 W/m² 12,9 km/h (3 Bft) 100,00 %
08.11.2025 00:04 6,2 °C 5,0 °C 2,2 °C 92 % 1012,4 hPa 0,0 l/m² 0 min 0 min 0 W/m² 6,4 km/h (2 Bft) 97,30 %
08.11.2025 00:07 6,2 °C 5,0 °C 2,2 °C 92 % 1012,5 hPa 0,0 l/m² 0 min 0 min 0 W/m² 6,4 km/h (2 Bft) 98,57 %
08.11.2025 00:08 6,2 °C 5,0 °C 2,2 °C 92 % 1012,5 hPa 0,0 l/m² 0 min 0 min 0 W/m² 6,4 km/h (2 Bft) 97,14 %
08.11.2025 00:12 6,1 °C 5,0 °C 2,2 °C 92 % 1012,5 hPa 0,0 l/m² 0 min 0 min 0 W/m² 6,4 km/h (2 Bft) 93,75 %
08.11.2025 00:14 6,1 °C 5,0 °C 2,2 °C 92 % 1012,5 hPa 0,0 l/m² 0 min 0 min 0 W/m² 9,7 km/h (2 Bft) 100,00 %
08.11.2025 00:16 6,1 °C 5,0 °C 2,2 °C 92 % 1012,5 hPa 0,0 l/m² 0 min 0 min 0 W/m² 3,2 km/h (1 Bft) 92,31 %
08.11.2025 00:18 6,1 °C 5,0 °C 2,2 °C 92 % 1012,6 hPa 0,0 l/m² 0 min 0 min 0 W/m² 3,2 km/h (1 Bft) 100,00 %
08.11.2025 00:20 6,1 °C 5,0 °C 1,7 °C 92 % 1012,6 hPa 0,0 l/m² 0 min 0 min 0 W/m² 3,2 km/h (1 Bft) 94,74 %
08.11.2025 00:22 6,1 °C 5,0 °C 1,7 °C 92 % 1012,6 hPa 0,0 l/m² 0 min 0 min 0 W/m² 3,2 km/h (1 Bft) 97,67 %
08.11.2025 00:24 6,0 °C 5,0 °C 1,7 °C 92 % 1012,6 hPa 0,0 l/m² 0 min 0 min 0 W/m² 6,4 km/h (2 Bft) 95,00 %
08.11.2025 00:26 6,0 °C 5,0 °C 1,7 °C 92 % 1012,6 hPa 0,0 l/m² 0 min 0 min 0 W/m² 3,2 km/h (1 Bft) 98,18 %
08.11.2025 00:28 5,9 °C 5,0 °C 1,7 °C 92 % 1012,6 hPa 0,0 l/m² 0 min 0 min 0 W/m² 3,2 km/h (1 Bft) 96,08 %
08.11.2025 00:30 5,9 °C 5,0 °C 1,7 °C 92 % 1012,6 hPa 0,0 l/m² 0 min 0 min 0 W/m² 6,4 km/h (2 Bft) 95,45 %
08.11.2025 00:32 5,9 °C 5,0 °C 1,7 °C 92 % 1012,6 hPa 0,0 l/m² 0 min 0 min 0 W/m² 12,9 km/h (3 Bft) 92,11 %
08.11.2025 00:34 5,9 °C 5,0 °C 1,7 °C 92 % 1012,6 hPa 0,0 l/m² 0 min 0 min 0 W/m² 12,9 km/h (3 Bft) 94,64 %
08.11.2025 00:36 5,8 °C 5,0 °C 1,7 °C 92 % 1012,6 hPa 0,0 l/m² 0 min 0 min 0 W/m² 3,2 km/h (1 Bft) 94,59 %
08.11.2025 00:38 5,8 °C 5,0 °C 1,7 °C 92 % 1012,7 hPa 0,0 l/m² 0 min 0 min 0 W/m² 6,4 km/h (2 Bft) 95,74 %
08.11.2025 00:40 5,8 °C 5,0 °C 1,7 °C 92 % 1012,7 hPa 0,0 l/m² 0 min 0 min 0 W/m² 6,4 km/h (2 Bft) 93,62 %
08.11.2025 00:42 5,8 °C 5,0 °C 1,7 °C 92 % 1012,6 hPa 0,0 l/m² 0 min 0 min 0 W/m² 12,9 km/h (3 Bft) 94,74 %
08.11.2025 00:44 5,8 °C 4,4 °C 1,7 °C 92 % 1012,6 hPa 0,0 l/m² 0 min 0 min 0 W/m² 12,9 km/h (3 Bft) 94,59 %
08.11.2025 00:46 5,7 °C 4,4 °C 1,7 °C 93 % 1012,6 hPa 0,0 l/m² 0 min 0 min 0 W/m² 12,9 km/h (3 Bft) 96,43 %
08.11.2025 00:48 5,7 °C 4,4 °C 1,7 °C 93 % 1012,6 hPa 0,0 l/m² 0 min 0 min 0 W/m² 12,9 km/h (3 Bft) 97,67 %
08.11.2025 00:50 5,7 °C 4,4 °C 1,7 °C 93 % 1012,7 hPa 0,0 l/m² 0 min 0 min 0 W/m² 6,4 km/h (2 Bft) 96,23 %
08.11.2025 00:52 5,7 °C 4,4 °C 1,7 °C 93 % 1012,7 hPa 0,0 l/m² 0 min 0 min 0 W/m² 6,4 km/h (2 Bft) 95,56 %
08.11.2025 00:54 5,7 °C 4,4 °C 1,7 °C 93 % 1012,7 hPa 0,0 l/m² 0 min 0 min 0 W/m² 12,9 km/h (3 Bft) 97,67 %
08.11.2025 00:56 5,6 °C 4,4 °C 1,7 °C 93 % 1012,7 hPa 0,0 l/m² 0 min 0 min 0 W/m² 19,3 km/h (3 Bft) 98,04 %
08.11.2025 00:58 5,6 °C 4,4 °C 1,7 °C 93 % 1012,7 hPa 0,0 l/m² 0 min 0 min 0 W/m² 9,7 km/h (2 Bft) 100,00 %
08.11.2025 01:00 5,6 °C 4,4 °C 1,7 °C 93 % 1012,7 hPa 0,0 l/m² 0 min 0 min 0 W/m² 12,9 km/h (3 Bft) 100,00 %
08.11.2025 01:02 5,6 °C 4,4 °C 1,7 °C 93 % 1012,7 hPa 0,0 l/m² 0 min 0 min 0 W/m² 16,1 km/h (3 Bft) 100,00 %
08.11.2025 01:04 5,6 °C 4,4 °C 1,7 °C 93 % 1012,6 hPa 0,0 l/m² 0 min 0 min 0 W/m² 6,4 km/h (2 Bft) 100,00 %
08.11.2025 01:06 5,6 °C 4,4 °C 1,7 °C 93 % 1012,7 hPa 0,0 l/m² 0 min 0 min 0 W/m² 9,7 km/h (2 Bft) 98,08 %
08.11.2025 01:08 5,5 °C 4,4 °C 1,7 °C 93 % 1012,7 hPa 0,0 l/m² 0 min 0 min 0 W/m² 6,4 km/h (2 Bft) 97,78 %
08.11.2025 01:10 5,5 °C 4,4 °C 1,7 °C 93 % 1012,7 hPa 0,0 l/m² 0 min 0 min 0 W/m² 12,9 km/h (3 Bft) 100,00 %
08.11.2025 01:12 5,5 °C 4,4 °C 1,7 °C 93 % 1012,7 hPa 0,0 l/m² 0 min 0 min 0 W/m² 9,7 km/h (2 Bft) 96,55 %
08.11.2025 01:14 5,5 °C 4,4 °C 1,7 °C 93 % 1012,7 hPa 0,0 l/m² 0 min 0 min 0 W/m² 6,4 km/h (2 Bft) 100,00 %
08.11.2025 01:16 5,4 °C 4,4 °C 1,7 °C 93 % 1012,6 hPa 0,0 l/m² 0 min 0 min 0 W/m² 6,4 km/h (2 Bft) 100,00 %
08.11.2025 01:18 5,4 °C 4,4 °C 1,7 °C 93 % 1012,7 hPa 0,0 l/m² 0 min 0 min 0 W/m² 12,9 km/h (3 Bft) 100,00 %
08.11.2025 01:20 5,4 °C 4,4 °C 1,7 °C 93 % 1012,6 hPa 0,0 l/m² 0 min 0 min 0 W/m² 12,9 km/h (3 Bft) 100,00 %
08.11.2025 01:22 5,4 °C 4,4 °C 1,1 °C 93 % 1012,6 hPa 0,0 l/m² 0 min 0 min 0 W/m² 6,4 km/h (2 Bft) 98,21 %
08.11.2025 01:24 5,4 °C 4,4 °C 1,1 °C 93 % 1012,7 hPa 0,0 l/m² 0 min 0 min 0 W/m² 12,9 km/h (3 Bft) 100,00 %
08.11.2025 01:26 5,4 °C 4,4 °C 1,1 °C 93 % 1012,7 hPa 0,0 l/m² 0 min 0 min 0 W/m² 6,4 km/h (2 Bft) 100,00 %
08.11.2025 01:28 5,4 °C 4,4 °C 1,1 °C 94 % 1012,7 hPa 0,0 l/m² 0 min 0 min 0 W/m² 9,7 km/h (2 Bft) 100,00 %
08.11.2025 01:30 5,3 °C 4,4 °C 1,1 °C 94 % 1012,6 hPa 0,0 l/m² 0 min 0 min 0 W/m² 12,9 km/h (3 Bft) 100,00 %
08.11.2025 01:32 5,3 °C 4,4 °C 1,1 °C 94 % 1012,6 hPa 0,0 l/m² 0 min 0 min 0 W/m² 6,4 km/h (2 Bft) 100,00 %
08.11.2025 01:34 5,3 °C 4,4 °C 1,1 °C 94 % 1012,7 hPa 0,0 l/m² 0 min 0 min 0 W/m² 6,4 km/h (2 Bft) 100,00 %
08.11.2025 01:36 5,3 °C 4,4 °C 1,1 °C 94 % 1012,7 hPa 0,0 l/m² 0 min 0 min 0 W/m² 9,7 km/h (2 Bft) 100,00 %
08.11.2025 01:38 5,3 °C 4,4 °C 1,1 °C 94 % 1012,7 hPa 0,0 l/m² 0 min 0 min 0 W/m² 6,4 km/h (2 Bft) 100,00 %
08.11.2025 01:40 5,3 °C 4,4 °C 1,1 °C 94 % 1012,7 hPa 0,0 l/m² 0 min 0 min 0 W/m² 6,4 km/h (2 Bft) 100,00 %
08.11.2025 01:42 5,3 °C 4,4 °C 1,1 °C 94 % 1012,7 hPa 0,0 l/m² 0 min 0 min 0 W/m² 16,1 km/h (3 Bft) 94,59 %
08.11.2025 01:44 5,3 °C 4,4 °C 1,1 °C 94 % 1012,7 hPa 0,0 l/m² 0 min 0 min 0 W/m² 6,4 km/h (2 Bft) 100,00 %
08.11.2025 01:46 5,2 °C 4,4 °C 1,1 °C 94 % 1012,7 hPa 0,0 l/m² 0 min 0 min 0 W/m² 12,9 km/h (3 Bft) 97,67 %
08.11.2025 01:48 5,2 °C 4,4 °C 1,1 °C 94 % 1012,8 hPa 0,0 l/m² 0 min 0 min 0 W/m² 6,4 km/h (2 Bft) 100,00 %
08.11.2025 01:50 5,2 °C 4,4 °C 1,1 °C 94 % 1012,8 hPa 0,0 l/m² 0 min 0 min 0 W/m² 6,4 km/h (2 Bft) 100,00 %
08.11.2025 01:52 5,2 °C 4,4 °C 1,1 °C 94 % 1012,8 hPa 0,0 l/m² 0 min 0 min 0 W/m² 12,9 km/h (3 Bft) 97,44 %
08.11.2025 01:54 5,2 °C 4,4 °C 1,1 °C 94 % 1012,8 hPa 0,0 l/m² 0 min 0 min 0 W/m² 6,4 km/h (2 Bft) 96,49 %
08.11.2025 01:56 5,2 °C 4,4 °C 1,1 °C 94 % 1012,8 hPa 0,0 l/m² 0 min 0 min 0 W/m² 12,9 km/h (3 Bft) 97,22 %
08.11.2025 01:58 5,2 °C 4,4 °C 1,1 °C 94 % 1012,9 hPa 0,0 l/m² 0 min 0 min 0 W/m² 16,1 km/h (3 Bft) 92,59 %
08.11.2025 02:00 5,2 °C 4,4 °C 1,1 °C 94 % 1012,9 hPa 0,0 l/m² 0 min 0 min 0 W/m² 6,4 km/h (2 Bft) 96,08 %
08.11.2025 02:02 5,2 °C 4,4 °C 1,1 °C 94 % 1012,9 hPa 0,0 l/m² 0 min 0 min 0 W/m² 12,9 km/h (3 Bft) 91,67 %
08.11.2025 02:04 5,2 °C 4,4 °C 1,1 °C 94 % 1012,9 hPa 0,0 l/m² 0 min 0 min 0 W/m² 9,7 km/h (2 Bft) 98,15 %
08.11.2025 02:06 5,1 °C 4,4 °C 1,1 °C 94 % 1012,8 hPa 0,0 l/m² 0 min 0 min 0 W/m² 9,7 km/h (2 Bft) 98,08 %
08.11.2025 02:08 5,1 °C 4,4 °C 1,1 °C 94 % 1012,9 hPa 0,0 l/m² 0 min 0 min 0 W/m² 16,1 km/h (3 Bft) 94,44 %
08.11.2025 02:10 5,1 °C 4,4 °C 1,1 °C 94 % 1012,8 hPa 0,0 l/m² 0 min 0 min 0 W/m² 12,9 km/h (3 Bft) 94,55 %
08.11.2025 02:17 5,1 °C 4,4 °C 1,1 °C 95 % 1012,8 hPa 0,0 l/m² 0 min 0 min 0 W/m² 6,4 km/h (2 Bft) 90,48 %
08.11.2025 02:18 5,1 °C 4,4 °C 1,1 °C 95 % 1012,8 hPa 0,0 l/m² 0 min 0 min 0 W/m² 6,4 km/h (2 Bft) 91,67 %
08.11.2025 02:20 5,1 °C 4,4 °C 1,1 °C 95 % 1012,8 hPa 0,0 l/m² 0 min 0 min 0 W/m² 6,4 km/h (2 Bft) 94,64 %
08.11.2025 02:22 5,1 °C 4,4 °C 1,1 °C 95 % 1012,8 hPa 0,0 l/m² 0 min 0 min 0 W/m² 6,4 km/h (2 Bft) 88,00 %
08.11.2025 02:24 5,1 °C 4,4 °C 1,1 °C 95 % 1012,8 hPa 0,0 l/m² 0 min 0 min 0 W/m² 3,2 km/h (1 Bft) 82,91 %
08.11.2025 02:26 5,0 °C 4,4 °C 1,1 °C 94 % 1012,8 hPa 0,0 l/m² 0 min 0 min 0 W/m² 3,2 km/h (1 Bft) 90,00 %
08.11.2025 02:28 5,0 °C 3,9 °C 1,1 °C 94 % 1012,8 hPa 0,0 l/m² 0 min 0 min 0 W/m² 6,4 km/h (2 Bft) 94,44 %
08.11.2025 02:30 5,0 °C 3,9 °C 1,1 °C 94 % 1012,8 hPa 0,0 l/m² 0 min 0 min 0 W/m² 6,4 km/h (2 Bft) 91,07 %
08.11.2025 02:32 5,0 °C 3,9 °C 1,1 °C 95 % 1012,8 hPa 0,0 l/m² 0 min 0 min 0 W/m² 6,4 km/h (2 Bft) 97,50 %
08.11.2025 02:34 4,9 °C 3,9 °C 1,1 °C 95 % 1012,9 hPa 0,0 l/m² 0 min 0 min 0 W/m² 12,9 km/h (3 Bft) 93,10 %
08.11.2025 02:36 4,9 °C 3,9 °C 1,1 °C 95 % 1012,9 hPa 0,0 l/m² 0 min 0 min 0 W/m² 6,4 km/h (2 Bft) 95,65 %
08.11.2025 02:38 4,9 °C 3,9 °C 1,1 °C 95 % 1012,9 hPa 0,0 l/m² 0 min 0 min 0 W/m² 6,4 km/h (2 Bft) 95,56 %
08.11.2025 02:40 4,9 °C 3,9 °C 1,1 °C 95 % 1012,9 hPa 0,0 l/m² 0 min 0 min 0 W/m² 12,9 km/h (3 Bft) 95,65 %
08.11.2025 02:42 4,9 °C 3,9 °C 1,1 °C 95 % 1012,9 hPa 0,0 l/m² 0 min 0 min 0 W/m² 9,7 km/h (2 Bft) 94,87 %
08.11.2025 02:44 4,9 °C 3,9 °C 1,1 °C 95 % 1012,9 hPa 0,0 l/m² 0 min 0 min 0 W/m² 9,7 km/h (2 Bft) 93,62 %
08.11.2025 02:46 4,9 °C 3,9 °C 1,1 °C 95 % 1012,9 hPa 0,0 l/m² 0 min 0 min 0 W/m² 12,9 km/h (3 Bft) 95,74 %
08.11.2025 02:48 4,9 °C 3,9 °C 1,1 °C 95 % 1012,9 hPa 0,0 l/m² 0 min 0 min 0 W/m² 6,4 km/h (2 Bft) 94,83 %
08.11.2025 02:50 4,9 °C 3,9 °C 1,1 °C 95 % 1012,9 hPa 0,0 l/m² 0 min 0 min 0 W/m² 9,7 km/h (2 Bft) 97,83 %
08.11.2025 02:52 4,9 °C 3,9 °C 1,1 °C 95 % 1012,9 hPa 0,0 l/m² 0 min 0 min 0 W/m² 3,2 km/h (1 Bft) 97,22 %
08.11.2025 02:54 4,9 °C 3,9 °C 1,1 °C 95 % 1012,8 hPa 0,0 l/m² 0 min 0 min 0 W/m² 6,4 km/h (2 Bft) 100,00 %
08.11.2025 02:56 4,8 °C 3,9 °C 1,1 °C 95 % 1012,9 hPa 0,0 l/m² 0 min 0 min 0 W/m² 9,7 km/h (2 Bft) 100,00 %
08.11.2025 02:58 4,8 °C 3,9 °C 1,1 °C 95 % 1012,8 hPa 0,0 l/m² 0 min 0 min 0 W/m² 12,9 km/h (3 Bft) 100,00 %
08.11.2025 03:00 4,8 °C 3,9 °C 1,1 °C 95 % 1012,8 hPa 0,0 l/m² 0 min 0 min 0 W/m² 12,9 km/h (3 Bft) 97,92 %
08.11.2025 03:02 4,8 °C 3,9 °C 1,1 °C 95 % 1012,9 hPa 0,0 l/m² 0 min 0 min 0 W/m² 12,9 km/h (3 Bft) 100,00 %
08.11.2025 03:04 4,8 °C 3,9 °C 1,1 °C 95 % 1012,9 hPa 0,0 l/m² 0 min 0 min 0 W/m² 16,1 km/h (3 Bft) 100,00 %
08.11.2025 03:06 4,8 °C 3,9 °C 1,1 °C 95 % 1012,9 hPa 0,0 l/m² 0 min 0 min 0 W/m² 12,9 km/h (3 Bft) 100,00 %
08.11.2025 03:08 4,8 °C 3,9 °C 1,1 °C 95 % 1012,9 hPa 0,0 l/m² 0 min 0 min 0 W/m² 6,4 km/h (2 Bft) 100,00 %
08.11.2025 03:10 4,8 °C 3,9 °C 1,1 °C 95 % 1012,9 hPa 0,0 l/m² 0 min 0 min 0 W/m² 12,9 km/h (3 Bft) 100,00 %
08.11.2025 03:12 4,8 °C 3,9 °C 1,1 °C 95 % 1012,9 hPa 0,0 l/m² 0 min 0 min 0 W/m² 9,7 km/h (2 Bft) 100,00 %
08.11.2025 03:14 4,8 °C 3,9 °C 0,6 °C 95 % 1012,9 hPa 0,0 l/m² 0 min 0 min 0 W/m² 16,1 km/h (3 Bft) 100,00 %
08.11.2025 03:16 4,7 °C 3,9 °C 1,1 °C 95 % 1012,8 hPa 0,0 l/m² 0 min 0 min 0 W/m² 16,1 km/h (3 Bft) 100,00 %
08.11.2025 03:18 4,7 °C 3,9 °C 0,6 °C 95 % 1012,9 hPa 0,0 l/m² 0 min 0 min 0 W/m² 12,9 km/h (3 Bft) 100,00 %
08.11.2025 03:20 4,7 °C 3,9 °C 0,6 °C 95 % 1012,9 hPa 0,0 l/m² 0 min 0 min 0 W/m² 6,4 km/h (2 Bft) 100,00 %
08.11.2025 03:22 4,7 °C 3,9 °C 0,6 °C 95 % 1012,8 hPa 0,0 l/m² 0 min 0 min 0 W/m² 12,9 km/h (3 Bft) 100,00 %
08.11.2025 03:24 4,7 °C 3,9 °C 1,1 °C 95 % 1012,8 hPa 0,0 l/m² 0 min 0 min 0 W/m² 12,9 km/h (3 Bft) 98,21 %
08.11.2025 03:26 4,7 °C 3,9 °C 1,1 °C 95 % 1012,8 hPa 0,0 l/m² 0 min 0 min 0 W/m² 12,9 km/h (3 Bft) 100,00 %
08.11.2025 03:28 4,7 °C 3,9 °C 0,6 °C 95 % 1012,9 hPa 0,0 l/m² 0 min 0 min 0 W/m² 9,7 km/h (2 Bft) 100,00 %
08.11.2025 03:30 4,7 °C 3,9 °C 0,6 °C 95 % 1012,9 hPa 0,0 l/m² 0 min 0 min 0 W/m² 12,9 km/h (3 Bft) 100,00 %
08.11.2025 03:32 4,7 °C 3,9 °C 0,6 °C 95 % 1012,9 hPa 0,0 l/m² 0 min 0 min 0 W/m² 12,9 km/h (3 Bft) 100,00 %
08.11.2025 03:34 4,7 °C 3,9 °C 0,6 °C 95 % 1012,9 hPa 0,0 l/m² 0 min 0 min 0 W/m² 3,2 km/h (1 Bft) 98,00 %
08.11.2025 03:36 4,7 °C 3,9 °C 0,6 °C 95 % 1012,9 hPa 0,0 l/m² 0 min 0 min 0 W/m² 12,9 km/h (3 Bft) 100,00 %
08.11.2025 03:38 4,7 °C 3,9 °C 0,6 °C 95 % 1012,9 hPa 0,0 l/m² 0 min 0 min 0 W/m² 12,9 km/h (3 Bft) 100,00 %
08.11.2025 03:40 4,6 °C 3,9 °C 0,6 °C 95 % 1012,9 hPa 0,0 l/m² 0 min 0 min 0 W/m² 9,7 km/h (2 Bft) 100,00 %
08.11.2025 03:42 4,6 °C 3,9 °C 0,6 °C 95 % 1012,9 hPa 0,0 l/m² 0 min 0 min 0 W/m² 12,9 km/h (3 Bft) 100,00 %
08.11.2025 03:44 4,6 °C 3,9 °C 0,6 °C 95 % 1012,9 hPa 0,0 l/m² 0 min 0 min 0 W/m² 12,9 km/h (3 Bft) 98,04 %
08.11.2025 03:46 4,6 °C 3,9 °C 0,6 °C 95 % 1012,9 hPa 0,0 l/m² 0 min 0 min 0 W/m² 6,4 km/h (2 Bft) 100,00 %
08.11.2025 03:48 4,6 °C 3,9 °C 0,6 °C 95 % 1012,9 hPa 0,0 l/m² 0 min 0 min 0 W/m² 19,3 km/h (3 Bft) 100,00 %
08.11.2025 03:50 4,6 °C 3,9 °C 0,6 °C 96 % 1012,9 hPa 0,0 l/m² 0 min 0 min 0 W/m² 12,9 km/h (3 Bft) 100,00 %
08.11.2025 03:52 4,6 °C 3,9 °C 0,6 °C 96 % 1012,9 hPa 0,0 l/m² 0 min 0 min 0 W/m² 6,4 km/h (2 Bft) 100,00 %
08.11.2025 03:54 4,6 °C 3,9 °C 0,6 °C 96 % 1012,9 hPa 0,0 l/m² 0 min 0 min 0 W/m² 9,7 km/h (2 Bft) 96,49 %
08.11.2025 03:56 4,6 °C 3,9 °C 0,6 °C 96 % 1012,9 hPa 0,0 l/m² 0 min 0 min 0 W/m² 12,9 km/h (3 Bft) 95,92 %
08.11.2025 03:58 4,6 °C 3,9 °C 0,6 °C 96 % 1012,9 hPa 0,0 l/m² 0 min 0 min 0 W/m² 12,9 km/h (3 Bft) 97,56 %
08.11.2025 04:00 4,6 °C 3,9 °C 0,6 °C 95 % 1012,9 hPa 0,0 l/m² 0 min 0 min 0 W/m² 12,9 km/h (3 Bft) 98,04 %
08.11.2025 04:02 4,6 °C 3,9 °C 0,6 °C 95 % 1012,8 hPa 0,0 l/m² 0 min 0 min 0 W/m² 6,4 km/h (2 Bft) 94,44 %
08.11.2025 04:04 4,5 °C 3,9 °C 0,6 °C 95 % 1012,8 hPa 0,0 l/m² 0 min 0 min 0 W/m² 12,9 km/h (3 Bft) 96,43 %
08.11.2025 04:06 4,5 °C 3,9 °C 0,6 °C 95 % 1012,8 hPa 0,0 l/m² 0 min 0 min 0 W/m² 6,4 km/h (2 Bft) 96,08 %
08.11.2025 04:08 4,5 °C 3,9 °C 0,6 °C 96 % 1012,8 hPa 0,0 l/m² 0 min 0 min 0 W/m² 6,4 km/h (2 Bft) 97,22 %
08.11.2025 04:10 4,5 °C 3,9 °C 0,6 °C 96 % 1012,8 hPa 0,0 l/m² 0 min 0 min 0 W/m² 12,9 km/h (3 Bft) 96,30 %
08.11.2025 04:12 4,5 °C 3,9 °C 0,6 °C 96 % 1012,8 hPa 0,0 l/m² 0 min 0 min 0 W/m² 6,4 km/h (2 Bft) 98,04 %
08.11.2025 04:14 4,4 °C 3,9 °C 0,6 °C 96 % 1012,8 hPa 0,0 l/m² 0 min 0 min 0 W/m² 6,4 km/h (2 Bft) 97,14 %
08.11.2025 04:16 4,5 °C 3,9 °C 0,6 °C 96 % 1012,9 hPa 0,0 l/m² 0 min 0 min 0 W/m² 6,4 km/h (2 Bft) 98,25 %
08.11.2025 04:18 4,4 °C 3,9 °C 0,6 °C 96 % 1012,8 hPa 0,0 l/m² 0 min 0 min 0 W/m² 12,9 km/h (3 Bft) 97,30 %
08.11.2025 04:20 4,4 °C 3,9 °C 0,6 °C 96 % 1012,8 hPa 0,0 l/m² 0 min 0 min 0 W/m² 6,4 km/h (2 Bft) 95,74 %
08.11.2025 04:25 4,4 °C 3,9 °C 0,6 °C 96 % 1012,8 hPa 0,0 l/m² 0 min 0 min 0 W/m² 12,9 km/h (3 Bft) 100,00 %
08.11.2025 04:26 4,4 °C 3,9 °C 0,6 °C 96 % 1012,8 hPa 0,0 l/m² 0 min 0 min 0 W/m² 6,4 km/h (2 Bft) 100,00 %
08.11.2025 04:28 4,4 °C 3,9 °C 0,6 °C 96 % 1012,8 hPa 0,0 l/m² 0 min 0 min 0 W/m² 6,4 km/h (2 Bft) 100,00 %
08.11.2025 04:30 4,4 °C 3,9 °C 0,6 °C 96 % 1012,8 hPa 0,0 l/m² 0 min 0 min 0 W/m² 9,7 km/h (2 Bft) 98,00 %
08.11.2025 04:32 4,4 °C 3,9 °C 0,6 °C 96 % 1012,8 hPa 0,0 l/m² 0 min 0 min 0 W/m² 6,4 km/h (2 Bft) 97,14 %
08.11.2025 04:34 4,4 °C 3,3 °C 0,6 °C 96 % 1012,8 hPa 0,0 l/m² 0 min 0 min 0 W/m² 16,1 km/h (3 Bft) 98,28 %
08.11.2025 04:36 4,4 °C 3,3 °C 0,6 °C 96 % 1012,8 hPa 0,0 l/m² 0 min 0 min 0 W/m² 12,9 km/h (3 Bft) 94,29 %
08.11.2025 04:38 4,4 °C 3,3 °C 0,6 °C 96 % 1012,8 hPa 0,0 l/m² 0 min 0 min 0 W/m² 12,9 km/h (3 Bft) 98,25 %
08.11.2025 04:40 4,3 °C 3,3 °C 0,6 °C 96 % 1012,8 hPa 0,0 l/m² 0 min 0 min 0 W/m² 12,9 km/h (3 Bft) 94,59 %
08.11.2025 04:42 4,3 °C 3,3 °C 0,6 °C 96 % 1012,8 hPa 0,0 l/m² 0 min 0 min 0 W/m² 12,9 km/h (3 Bft) 97,87 %
08.11.2025 04:44 4,3 °C 3,3 °C 0,6 °C 96 % 1012,8 hPa 0,0 l/m² 0 min 0 min 0 W/m² 16,1 km/h (3 Bft) 96,49 %
08.11.2025 04:46 4,3 °C 3,3 °C 0,6 °C 96 % 1012,8 hPa 0,0 l/m² 0 min 0 min 0 W/m² 12,9 km/h (3 Bft) 97,30 %
08.11.2025 04:48 4,3 °C 3,3 °C 0,6 °C 96 % 1012,8 hPa 0,0 l/m² 0 min 0 min 0 W/m² 6,4 km/h (2 Bft) 96,36 %
08.11.2025 04:50 4,3 °C 3,3 °C 0,6 °C 96 % 1012,8 hPa 0,0 l/m² 0 min 0 min 0 W/m² 3,2 km/h (1 Bft) 97,37 %
08.11.2025 04:52 4,3 °C 3,3 °C 0,6 °C 96 % 1012,8 hPa 0,0 l/m² 0 min 0 min 0 W/m² 3,2 km/h (1 Bft) 100,00 %
08.11.2025 04:54 4,3 °C 3,3 °C 0,6 °C 96 % 1012,8 hPa 0,0 l/m² 0 min 0 min 0 W/m² 3,2 km/h (1 Bft) 98,04 %
08.11.2025 04:56 4,3 °C 3,3 °C 0,6 °C 96 % 1012,8 hPa 0,0 l/m² 0 min 0 min 0 W/m² 3,2 km/h (1 Bft) 95,56 %
08.11.2025 04:58 4,3 °C 3,3 °C 0,6 °C 96 % 1012,7 hPa 0,0 l/m² 0 min 0 min 0 W/m² 12,9 km/h (3 Bft) 97,37 %
08.11.2025 05:00 4,3 °C 3,3 °C 0,6 °C 96 % 1012,8 hPa 0,0 l/m² 0 min 0 min 0 W/m² 3,2 km/h (1 Bft) 96,49 %
08.11.2025 05:02 4,3 °C 3,3 °C 0,6 °C 96 % 1012,9 hPa 0,0 l/m² 0 min 0 min 0 W/m² 3,2 km/h (1 Bft) 97,22 %
08.11.2025 05:04 4,3 °C 3,3 °C 0,6 °C 96 % 1012,8 hPa 0,0 l/m² 0 min 0 min 0 W/m² 12,9 km/h (3 Bft) 98,31 %
08.11.2025 05:06 4,3 °C 3,3 °C 0,6 °C 96 % 1012,8 hPa 0,0 l/m² 0 min 0 min 0 W/m² 9,7 km/h (2 Bft) 95,92 %
08.11.2025 05:08 4,3 °C 3,3 °C 0,6 °C 96 % 1012,8 hPa 0,0 l/m² 0 min 0 min 0 W/m² 6,4 km/h (2 Bft) 97,73 %
08.11.2025 05:10 4,3 °C 3,3 °C 0,6 °C 96 % 1012,9 hPa 0,0 l/m² 0 min 0 min 0 W/m² 9,7 km/h (2 Bft) 94,59 %
08.11.2025 05:12 4,3 °C 3,3 °C 0,6 °C 96 % 1012,9 hPa 0,0 l/m² 0 min 0 min 0 W/m² 3,2 km/h (1 Bft) 98,18 %
08.11.2025 05:14 4,3 °C 3,3 °C 0,6 °C 96 % 1012,9 hPa 0,0 l/m² 0 min 0 min 0 W/m² 12,9 km/h (3 Bft) 97,44 %
08.11.2025 05:16 4,3 °C 3,9 °C 0,6 °C 96 % 1013,0 hPa 0,0 l/m² 0 min 0 min 0 W/m² 12,9 km/h (3 Bft) 97,87 %
08.11.2025 05:18 4,3 °C 3,3 °C 0,6 °C 96 % 1013,0 hPa 0,0 l/m² 0 min 0 min 0 W/m² 6,4 km/h (2 Bft) 96,49 %
08.11.2025 05:20 4,3 °C 3,9 °C 0,6 °C 96 % 1013,0 hPa 0,0 l/m² 0 min 0 min 0 W/m² 9,7 km/h (2 Bft) 97,30 %
08.11.2025 05:22 4,3 °C 3,9 °C 0,6 °C 96 % 1013,0 hPa 0,0 l/m² 0 min 0 min 0 W/m² 6,4 km/h (2 Bft) 96,43 %
08.11.2025 05:24 4,4 °C 3,9 °C 0,6 °C 96 % 1013,0 hPa 0,0 l/m² 0 min 0 min 0 W/m² 12,9 km/h (3 Bft) 94,59 %
08.11.2025 05:26 4,4 °C 3,9 °C 0,6 °C 96 % 1013,0 hPa 0,0 l/m² 0 min 0 min 0 W/m² 9,7 km/h (2 Bft) 96,43 %
08.11.2025 05:28 4,4 °C 3,9 °C 0,6 °C 96 % 1013,0 hPa 0,0 l/m² 0 min 0 min 0 W/m² 6,4 km/h (2 Bft) 97,37 %
08.11.2025 05:30 4,4 °C 3,9 °C 0,6 °C 96 % 1013,0 hPa 0,0 l/m² 0 min 0 min 0 W/m² 16,1 km/h (3 Bft) 96,30 %
08.11.2025 05:32 4,4 °C 3,9 °C 0,6 °C 96 % 1013,0 hPa 0,0 l/m² 0 min 0 min 0 W/m² 12,9 km/h (3 Bft) 97,50 %
08.11.2025 05:34 4,4 °C 3,9 °C 0,6 °C 96 % 1013,1 hPa 0,0 l/m² 0 min 0 min 0 W/m² 12,9 km/h (3 Bft) 96,36 %
08.11.2025 05:36 4,4 °C 3,9 °C 0,6 °C 96 % 1013,0 hPa 0,0 l/m² 0 min 0 min 0 W/m² 9,7 km/h (2 Bft) 94,74 %
08.11.2025 05:38 4,4 °C 3,9 °C 0,6 °C 96 % 1013,1 hPa 0,0 l/m² 0 min 0 min 0 W/m² 16,1 km/h (3 Bft) 96,36 %
08.11.2025 05:40 4,4 °C 3,9 °C 0,6 °C 96 % 1013,0 hPa 0,0 l/m² 0 min 0 min 0 W/m² 12,9 km/h (3 Bft) 97,44 %
08.11.2025 05:42 4,4 °C 3,9 °C 0,6 °C 97 % 1013,0 hPa 0,0 l/m² 0 min 0 min 0 W/m² 16,1 km/h (3 Bft) 94,44 %
08.11.2025 05:44 4,4 °C 3,9 °C 0,6 °C 97 % 1013,0 hPa 0,0 l/m² 0 min 0 min 0 W/m² 6,4 km/h (2 Bft) 95,00 %
08.11.2025 05:46 4,4 °C 3,9 °C 0,6 °C 97 % 1013,0 hPa 0,0 l/m² 0 min 0 min 0 W/m² 3,2 km/h (1 Bft) 96,23 %
08.11.2025 05:48 4,5 °C 3,9 °C 0,6 °C 97 % 1013,0 hPa 0,0 l/m² 0 min 0 min 0 W/m² 6,4 km/h (2 Bft) 92,50 %
08.11.2025 05:50 4,5 °C 3,9 °C 0,6 °C 97 % 1013,0 hPa 0,0 l/m² 0 min 0 min 0 W/m² 3,2 km/h (1 Bft) 94,44 %
08.11.2025 05:52 4,5 °C 3,9 °C 0,6 °C 97 % 1013,0 hPa 0,0 l/m² 0 min 0 min 0 W/m² 12,9 km/h (3 Bft) 95,00 %
08.11.2025 05:54 4,5 °C 3,9 °C 0,6 °C 97 % 1013,0 hPa 0,0 l/m² 0 min 0 min 0 W/m² 6,4 km/h (2 Bft) 97,87 %
08.11.2025 05:56 4,5 °C 3,9 °C 0,6 °C 97 % 1013,1 hPa 0,0 l/m² 0 min 0 min 0 W/m² 12,9 km/h (3 Bft) 96,49 %
08.11.2025 05:58 4,5 °C 3,9 °C 0,6 °C 97 % 1013,1 hPa 0,0 l/m² 0 min 0 min 0 W/m² 12,9 km/h (3 Bft) 94,44 %
08.11.2025 06:00 4,6 °C 3,9 °C 0,6 °C 97 % 1013,0 hPa 0,0 l/m² 0 min 0 min 0 W/m² 12,9 km/h (3 Bft) 94,64 %
08.11.2025 06:02 4,5 °C 3,9 °C 0,6 °C 97 % 1013,0 hPa 0,0 l/m² 0 min 0 min 0 W/m² 16,1 km/h (3 Bft) 97,37 %
08.11.2025 06:04 4,5 °C 3,9 °C 0,6 °C 97 % 1013,1 hPa 0,0 l/m² 0 min 0 min 0 W/m² 12,9 km/h (3 Bft) 97,96 %
08.11.2025 06:08 4,5 °C 3,9 °C 0,6 °C 97 % 1013,1 hPa 0,0 l/m² 0 min 0 min 0 W/m² 12,9 km/h (3 Bft) 95,74 %
08.11.2025 06:10 4,5 °C 3,9 °C 0,6 °C 97 % 1013,1 hPa 0,0 l/m² 0 min 0 min 0 W/m² 6,4 km/h (2 Bft) 100,00 %
08.11.2025 06:12 4,5 °C 3,9 °C 0,6 °C 97 % 1013,1 hPa 0,0 l/m² 0 min 0 min 0 W/m² 6,4 km/h (2 Bft) 97,92 %
08.11.2025 06:14 4,5 °C 3,9 °C 0,6 °C 97 % 1013,1 hPa 0,0 l/m² 0 min 0 min 0 W/m² 9,7 km/h (2 Bft) 100,00 %
08.11.2025 06:16 4,6 °C 3,9 °C 0,6 °C 97 % 1013,1 hPa 0,0 l/m² 0 min 0 min 0 W/m² 12,9 km/h (3 Bft) 97,92 %
08.11.2025 06:18 4,6 °C 3,9 °C 0,6 °C 97 % 1013,1 hPa 0,0 l/m² 0 min 0 min 0 W/m² 6,4 km/h (2 Bft) 97,73 %
08.11.2025 06:20 4,6 °C 3,9 °C 0,6 °C 97 % 1013,1 hPa 0,0 l/m² 0 min 0 min 0 W/m² 6,4 km/h (2 Bft) 100,00 %
08.11.2025 06:22 4,6 °C 3,9 °C 0,6 °C 97 % 1013,1 hPa 0,0 l/m² 0 min 0 min 0 W/m² 12,9 km/h (3 Bft) 100,00 %
08.11.2025 06:24 4,6 °C 3,9 °C 0,6 °C 97 % 1013,1 hPa 0,0 l/m² 0 min 0 min 0 W/m² 12,9 km/h (3 Bft) 100,00 %
08.11.2025 06:26 4,6 °C 3,9 °C 0,6 °C 97 % 1013,1 hPa 0,0 l/m² 0 min 0 min 0 W/m² 9,7 km/h (2 Bft) 100,00 %
08.11.2025 06:28 4,6 °C 3,9 °C 0,6 °C 97 % 1013,1 hPa 0,0 l/m² 0 min 0 min 0 W/m² 12,9 km/h (3 Bft) 98,15 %
08.11.2025 06:30 4,6 °C 3,9 °C 0,6 °C 97 % 1013,1 hPa 0,0 l/m² 0 min 0 min 0 W/m² 12,9 km/h (3 Bft) 100,00 %
08.11.2025 06:32 4,6 °C 3,9 °C 0,6 °C 97 % 1013,2 hPa 0,0 l/m² 0 min 0 min 0 W/m² 12,9 km/h (3 Bft) 100,00 %
08.11.2025 06:34 4,6 °C 3,9 °C 0,6 °C 97 % 1013,2 hPa 0,0 l/m² 0 min 0 min 0 W/m² 6,4 km/h (2 Bft) 97,44 %
08.11.2025 06:36 4,6 °C 3,9 °C 0,6 °C 97 % 1013,2 hPa 0,0 l/m² 0 min 0 min 0 W/m² 12,9 km/h (3 Bft) 100,00 %
08.11.2025 06:38 4,6 °C 3,9 °C 0,6 °C 97 % 1013,2 hPa 0,0 l/m² 0 min 0 min 0 W/m² 12,9 km/h (3 Bft) 97,50 %
08.11.2025 06:40 4,6 °C 3,9 °C 0,6 °C 97 % 1013,2 hPa 0,0 l/m² 0 min 0 min 0 W/m² 12,9 km/h (3 Bft) 100,00 %
08.11.2025 06:42 4,6 °C 3,9 °C 0,6 °C 97 % 1013,3 hPa 0,0 l/m² 0 min 0 min 0 W/m² 6,4 km/h (2 Bft) 100,00 %
08.11.2025 06:44 4,6 °C 3,9 °C 0,6 °C 97 % 1013,2 hPa 0,0 l/m² 0 min 0 min 0 W/m² 6,4 km/h (2 Bft) 95,74 %
08.11.2025 06:46 4,6 °C 3,9 °C 0,6 °C 97 % 1013,3 hPa 0,0 l/m² 0 min 0 min 0 W/m² 6,4 km/h (2 Bft) 97,83 %
08.11.2025 06:48 4,6 °C 3,9 °C 0,6 °C 97 % 1013,3 hPa 0,0 l/m² 0 min 0 min 0 W/m² 9,7 km/h (2 Bft) 95,83 %
08.11.2025 06:50 4,6 °C 3,9 °C 0,6 °C 97 % 1013,3 hPa 0,0 l/m² 0 min 0 min 0 W/m² 12,9 km/h (3 Bft) 98,18 %
08.11.2025 06:52 4,6 °C 3,9 °C 0,6 °C 97 % 1013,3 hPa 0,0 l/m² 0 min 0 min 0 W/m² 12,9 km/h (3 Bft) 97,44 %
08.11.2025 06:54 4,6 °C 3,9 °C 0,6 °C 97 % 1013,3 hPa 0,0 l/m² 0 min 0 min 0 W/m² 12,9 km/h (3 Bft) 98,11 %
08.11.2025 06:56 4,6 °C 3,9 °C 0,6 °C 97 % 1013,3 hPa 0,0 l/m² 0 min 0 min 0 W/m² 16,1 km/h (3 Bft) 97,50 %
08.11.2025 06:58 4,6 °C 3,9 °C 0,6 °C 97 % 1013,3 hPa 0,0 l/m² 0 min 0 min 0 W/m² 16,1 km/h (3 Bft) 98,00 %
08.11.2025 07:00 4,6 °C 3,9 °C 0,6 °C 97 % 1013,4 hPa 0,0 l/m² 0 min 0 min 0 W/m² 19,3 km/h (3 Bft) 97,62 %
08.11.2025 07:02 4,6 °C 3,9 °C 0,6 °C 97 % 1013,4 hPa 0,0 l/m² 0 min 0 min 0 W/m² 12,9 km/h (3 Bft) 94,23 %
08.11.2025 07:04 4,5 °C 3,9 °C 0,6 °C 97 % 1013,4 hPa 0,0 l/m² 0 min 0 min 0 W/m² 6,4 km/h (2 Bft) 97,96 %
08.11.2025 07:06 4,5 °C 3,9 °C 0,6 °C 97 % 1013,4 hPa 0,0 l/m² 0 min 0 min 0 W/m² 6,4 km/h (2 Bft) 98,15 %
08.11.2025 07:08 4,5 °C 3,9 °C 0,6 °C 97 % 1013,4 hPa 0,0 l/m² 0 min 0 min 0 W/m² 9,7 km/h (2 Bft) 97,44 %
08.11.2025 07:10 4,5 °C 3,9 °C 0,6 °C 97 % 1013,5 hPa 0,0 l/m² 0 min 0 min 0 W/m² 12,9 km/h (3 Bft) 97,67 %
08.11.2025 07:12 4,5 °C 3,9 °C 0,6 °C 98 % 1013,5 hPa 0,0 l/m² 0 min 0 min 0 W/m² 16,1 km/h (3 Bft) 98,04 %
08.11.2025 07:14 4,4 °C 3,9 °C 0,6 °C 98 % 1013,5 hPa 0,0 l/m² 0 min 0 min 0 W/m² 16,1 km/h (3 Bft) 97,14 %
08.11.2025 07:16 4,4 °C 3,9 °C 0,6 °C 98 % 1013,5 hPa 0,0 l/m² 0 min 0 min 0 W/m² 6,4 km/h (2 Bft) 94,64 %
08.11.2025 07:18 4,4 °C 3,9 °C 0,6 °C 98 % 1013,5 hPa 0,0 l/m² 0 min 0 min 0 W/m² 12,9 km/h (3 Bft) 97,96 %
08.11.2025 07:20 4,4 °C 3,9 °C 0,6 °C 98 % 1013,5 hPa 0,0 l/m² 0 min 0 min 0 W/m² 12,9 km/h (3 Bft) 97,67 %
08.11.2025 07:22 4,4 °C 3,9 °C 0,6 °C 98 % 1013,5 hPa 0,0 l/m² 0 min 0 min 0 W/m² 9,7 km/h (2 Bft) 94,12 %
08.11.2025 07:24 4,4 °C 3,9 °C 0,6 °C 98 % 1013,6 hPa 0,0 l/m² 0 min 0 min 0 W/m² 6,4 km/h (2 Bft) 51,43 %
08.11.2025 07:26 4,4 °C 3,9 °C 0,6 °C 98 % 1013,6 hPa 0,0 l/m² 0 min 0 min 0 W/m² 6,4 km/h (2 Bft) 90,00 %
08.11.2025 07:28 4,4 °C 3,9 °C 0,6 °C 97 % 1013,7 hPa 0,0 l/m² 0 min 0 min 0 W/m² 6,4 km/h (2 Bft) 97,30 %
08.11.2025 07:30 4,4 °C 3,9 °C 0,6 °C 97 % 1013,7 hPa 0,0 l/m² 0 min 0 min 0 W/m² 3,2 km/h (1 Bft) 96,43 %
08.11.2025 07:32 4,4 °C 3,9 °C 0,6 °C 97 % 1013,6 hPa 0,0 l/m² 0 min 0 min 0 W/m² 6,4 km/h (2 Bft) 95,92 %
08.11.2025 07:34 4,4 °C 3,9 °C 0,6 °C 97 % 1013,7 hPa 0,0 l/m² 0 min 0 min 0 W/m² 6,4 km/h (2 Bft) 95,56 %
08.11.2025 07:36 4,4 °C 3,9 °C 0,6 °C 97 % 1013,8 hPa 0,0 l/m² 0 min 0 min 0 W/m² 3,2 km/h (1 Bft) 97,96 %
08.11.2025 07:38 4,4 °C 3,9 °C 0,6 °C 98 % 1013,8 hPa 0,0 l/m² 0 min 0 min 0 W/m² 6,4 km/h (2 Bft) 97,62 %
08.11.2025 07:40 4,4 °C 3,9 °C 0,6 °C 98 % 1013,9 hPa 0,0 l/m² 0 min 0 min 0 W/m² 12,9 km/h (3 Bft) 98,04 %
08.11.2025 07:42 4,4 °C 3,9 °C 0,6 °C 98 % 1013,9 hPa 0,0 l/m² 0 min 0 min 0 W/m² 16,1 km/h (3 Bft) 97,67 %
08.11.2025 07:44 4,4 °C 3,9 °C 0,6 °C 98 % 1013,9 hPa 0,0 l/m² 0 min 0 min 0 W/m² 12,9 km/h (3 Bft) 96,08 %
08.11.2025 07:46 4,4 °C 3,9 °C 0,6 °C 98 % 1013,9 hPa 0,0 l/m² 0 min 0 min 0 W/m² 9,7 km/h (2 Bft) 97,67 %
08.11.2025 07:48 4,4 °C 3,9 °C 0,6 °C 98 % 1013,9 hPa 0,0 l/m² 0 min 0 min 0 W/m² 6,4 km/h (2 Bft) 98,04 %
08.11.2025 07:50 4,4 °C 3,9 °C 0,6 °C 98 % 1014,0 hPa 0,0 l/m² 0 min 0 min 0 W/m² 6,4 km/h (2 Bft) 97,62 %
08.11.2025 07:52 4,4 °C 3,9 °C 0,6 °C 98 % 1014,0 hPa 0,0 l/m² 0 min 0 min 4 W/m² 9,7 km/h (2 Bft) 96,08 %
08.11.2025 07:54 4,4 °C 3,9 °C 0,6 °C 98 % 1014,0 hPa 0,0 l/m² 0 min 0 min 5 W/m² 3,2 km/h (1 Bft) 97,22 %
08.11.2025 07:56 4,4 °C 3,9 °C 0,6 °C 98 % 1014,0 hPa 0,0 l/m² 0 min 0 min 6 W/m² 6,4 km/h (2 Bft) 98,21 %
08.11.2025 07:58 4,4 °C 3,9 °C 0,6 °C 98 % 1014,0 hPa 0,0 l/m² 0 min 0 min 8 W/m² 6,4 km/h (2 Bft) 97,96 %
08.11.2025 08:00 4,4 °C 3,9 °C 0,6 °C 98 % 1014,1 hPa 0,0 l/m² 0 min 0 min 9 W/m² 6,4 km/h (2 Bft) 100,00 %
08.11.2025 08:02 4,4 °C 3,9 °C 0,6 °C 98 % 1014,1 hPa 0,0 l/m² 0 min 0 min 11 W/m² 6,4 km/h (2 Bft) 100,00 %
08.11.2025 08:04 4,4 °C 3,9 °C 0,6 °C 98 % 1014,1 hPa 0,0 l/m² 0 min 0 min 13 W/m² 9,7 km/h (2 Bft) 100,00 %
08.11.2025 08:07 4,4 °C 3,9 °C 0,6 °C 98 % 1014,1 hPa 0,0 l/m² 0 min 0 min 16 W/m² 6,4 km/h (2 Bft) 98,55 %
08.11.2025 08:10 4,4 °C 3,9 °C 0,6 °C 98 % 1014,1 hPa 0,0 l/m² 0 min 0 min 18 W/m² 6,4 km/h (2 Bft) 96,77 %
08.11.2025 08:12 4,4 °C 3,9 °C 0,6 °C 98 % 1014,1 hPa 0,0 l/m² 0 min 0 min 18 W/m² 6,4 km/h (2 Bft) 94,55 %
08.11.2025 08:14 4,5 °C 3,9 °C 0,6 °C 98 % 1014,2 hPa 0,0 l/m² 0 min 0 min 20 W/m² 6,4 km/h (2 Bft) 97,44 %
08.11.2025 08:16 4,5 °C 3,9 °C 0,6 °C 98 % 1014,2 hPa 0,0 l/m² 0 min 0 min 21 W/m² 6,4 km/h (2 Bft) 96,30 %
08.11.2025 08:18 4,5 °C 3,9 °C 1,1 °C 98 % 1014,2 hPa 0,0 l/m² 0 min 0 min 21 W/m² 3,2 km/h (1 Bft) 96,08 %
08.11.2025 08:20 4,5 °C 3,9 °C 1,1 °C 98 % 1014,2 hPa 0,0 l/m² 0 min 0 min 21 W/m² 3,2 km/h (1 Bft) 97,67 %
08.11.2025 08:22 4,6 °C 3,9 °C 1,1 °C 98 % 1014,2 hPa 0,0 l/m² 0 min 0 min 19 W/m² 12,9 km/h (3 Bft) 98,04 %
08.11.2025 08:24 4,6 °C 3,9 °C 1,1 °C 98 % 1014,3 hPa 0,0 l/m² 0 min 0 min 19 W/m² 3,2 km/h (1 Bft) 97,78 %
08.11.2025 08:26 4,6 °C 3,9 °C 1,1 °C 98 % 1014,3 hPa 0,0 l/m² 0 min 0 min 19 W/m² 9,7 km/h (2 Bft) 97,87 %
08.11.2025 08:28 4,6 °C 4,4 °C 1,1 °C 98 % 1014,2 hPa 0,0 l/m² 0 min 0 min 21 W/m² 6,4 km/h (2 Bft) 97,67 %
08.11.2025 08:30 4,6 °C 4,4 °C 1,1 °C 98 % 1014,3 hPa 0,0 l/m² 0 min 0 min 21 W/m² 6,4 km/h (2 Bft) 97,50 %
08.11.2025 08:32 4,6 °C 4,4 °C 1,1 °C 98 % 1014,3 hPa 0,0 l/m² 0 min 0 min 21 W/m² 12,9 km/h (3 Bft) 97,87 %
08.11.2025 08:34 4,6 °C 3,9 °C 1,1 °C 98 % 1014,3 hPa 0,0 l/m² 0 min 0 min 20 W/m² 9,7 km/h (2 Bft) 94,92 %
08.11.2025 08:36 4,7 °C 4,4 °C 1,1 °C 98 % 1014,3 hPa 0,0 l/m² 0 min 0 min 21 W/m² 3,2 km/h (1 Bft) 97,73 %
08.11.2025 08:38 4,7 °C 4,4 °C 1,1 °C 98 % 1014,3 hPa 0,0 l/m² 0 min 0 min 21 W/m² 6,4 km/h (2 Bft) 97,37 %
08.11.2025 08:40 4,7 °C 4,4 °C 1,1 °C 98 % 1014,3 hPa 0,0 l/m² 0 min 0 min 23 W/m² 6,4 km/h (2 Bft) 96,55 %
08.11.2025 08:42 4,7 °C 4,4 °C 1,1 °C 98 % 1014,3 hPa 0,0 l/m² 0 min 0 min 23 W/m² 6,4 km/h (2 Bft) 97,78 %
08.11.2025 08:44 4,7 °C 4,4 °C 1,1 °C 98 % 1014,3 hPa 0,0 l/m² 0 min 0 min 23 W/m² 6,4 km/h (2 Bft) 97,30 %
08.11.2025 08:46 4,7 °C 4,4 °C 1,1 °C 98 % 1014,3 hPa 0,0 l/m² 0 min 0 min 25 W/m² 6,4 km/h (2 Bft) 95,74 %
08.11.2025 08:48 4,7 °C 4,4 °C 1,1 °C 98 % 1014,4 hPa 0,0 l/m² 0 min 0 min 26 W/m² 12,9 km/h (3 Bft) 98,31 %
08.11.2025 08:50 4,8 °C 4,4 °C 1,1 °C 98 % 1014,4 hPa 0,0 l/m² 0 min 0 min 30 W/m² 6,4 km/h (2 Bft) 95,35 %
08.11.2025 08:52 4,8 °C 4,4 °C 1,1 °C 98 % 1014,4 hPa 0,0 l/m² 0 min 0 min 29 W/m² 6,4 km/h (2 Bft) 97,44 %
08.11.2025 08:54 4,8 °C 4,4 °C 1,1 °C 98 % 1014,3 hPa 0,0 l/m² 0 min 0 min 29 W/m² 6,4 km/h (2 Bft) 96,55 %
08.11.2025 08:56 4,8 °C 4,4 °C 1,1 °C 98 % 1014,4 hPa 0,0 l/m² 0 min 0 min 30 W/m² 6,4 km/h (2 Bft) 95,35 %
08.11.2025 08:58 4,8 °C 4,4 °C 1,1 °C 98 % 1014,4 hPa 0,0 l/m² 0 min 0 min 32 W/m² 6,4 km/h (2 Bft) 94,87 %
08.11.2025 09:00 4,8 °C 4,4 °C 1,1 °C 98 % 1014,4 hPa 0,0 l/m² 0 min 0 min 35 W/m² 6,4 km/h (2 Bft) 100,00 %
08.11.2025 09:02 4,8 °C 4,4 °C 1,1 °C 98 % 1014,4 hPa 0,0 l/m² 0 min 0 min 37 W/m² 6,4 km/h (2 Bft) 97,73 %
08.11.2025 09:04 4,9 °C 4,4 °C 1,1 °C 98 % 1014,4 hPa 0,0 l/m² 0 min 0 min 36 W/m² 6,4 km/h (2 Bft) 100,00 %
08.11.2025 09:08 4,9 °C 4,4 °C 1,7 °C 98 % 1014,4 hPa 0,0 l/m² 0 min 0 min 37 W/m² 6,4 km/h (2 Bft) 97,87 %
08.11.2025 09:10 4,9 °C 4,4 °C 1,7 °C 98 % 1014,4 hPa 0,0 l/m² 0 min 0 min 40 W/m² 12,9 km/h (3 Bft) 94,83 %
08.11.2025 09:12 4,9 °C 4,4 °C 1,7 °C 98 % 1014,5 hPa 0,0 l/m² 0 min 0 min 44 W/m² 6,4 km/h (2 Bft) 100,00 %
08.11.2025 09:14 5,0 °C 5,0 °C 1,7 °C 98 % 1014,5 hPa 0,0 l/m² 0 min 0 min 46 W/m² 6,4 km/h (2 Bft) 97,56 %
08.11.2025 09:16 5,0 °C 5,0 °C 1,7 °C 98 % 1014,5 hPa 0,0 l/m² 0 min 0 min 42 W/m² 12,9 km/h (3 Bft) 91,30 %
08.11.2025 09:18 5,0 °C 5,0 °C 1,7 °C 98 % 1014,5 hPa 0,0 l/m² 0 min 0 min 44 W/m² 6,4 km/h (2 Bft) 93,62 %
08.11.2025 09:20 5,1 °C 5,0 °C 1,7 °C 98 % 1014,5 hPa 0,0 l/m² 0 min 0 min 43 W/m² 9,7 km/h (2 Bft) 96,43 %
08.11.2025 09:22 5,1 °C 5,0 °C 1,7 °C 98 % 1014,5 hPa 0,0 l/m² 0 min 0 min 38 W/m² 9,7 km/h (2 Bft) 94,74 %
08.11.2025 09:24 5,1 °C 5,0 °C 1,7 °C 98 % 1014,4 hPa 0,0 l/m² 0 min 0 min 35 W/m² 6,4 km/h (2 Bft) 93,62 %
08.11.2025 09:26 5,1 °C 5,0 °C 1,7 °C 98 % 1014,5 hPa 0,0 l/m² 0 min 0 min 35 W/m² 6,4 km/h (2 Bft) 96,43 %
08.11.2025 09:28 5,1 °C 5,0 °C 1,7 °C 98 % 1014,5 hPa 0,0 l/m² 0 min 0 min 44 W/m² 6,4 km/h (2 Bft) 94,59 %
08.11.2025 09:30 5,1 °C 5,0 °C 1,7 °C 98 % 1014,5 hPa 0,0 l/m² 0 min 0 min 56 W/m² 9,7 km/h (2 Bft) 95,74 %
08.11.2025 09:32 5,2 °C 5,0 °C 1,7 °C 98 % 1014,6 hPa 0,0 l/m² 0 min 0 min 70 W/m² 6,4 km/h (2 Bft) 94,92 %
08.11.2025 09:34 5,2 °C 5,6 °C 1,7 °C 98 % 1014,5 hPa 0,0 l/m² 0 min 0 min 84 W/m² 6,4 km/h (2 Bft) 95,65 %
08.11.2025 09:36 5,2 °C 5,6 °C 2,2 °C 98 % 1014,6 hPa 0,0 l/m² 0 min 0 min 96 W/m² 6,4 km/h (2 Bft) 95,35 %
08.11.2025 09:38 5,3 °C 5,6 °C 2,2 °C 98 % 1014,6 hPa 0,0 l/m² 0 min 0 min 97 W/m² 9,7 km/h (2 Bft) 95,00 %
08.11.2025 09:40 5,3 °C 5,6 °C 2,2 °C 98 % 1014,6 hPa 0,0 l/m² 0 min 0 min 75 W/m² 9,7 km/h (2 Bft) 94,83 %
08.11.2025 09:42 5,3 °C 5,6 °C 2,2 °C 98 % 1014,6 hPa 0,0 l/m² 0 min 0 min 74 W/m² 6,4 km/h (2 Bft) 93,62 %
08.11.2025 09:44 5,3 °C 5,6 °C 2,2 °C 99 % 1014,6 hPa 0,0 l/m² 0 min 0 min 78 W/m² 6,4 km/h (2 Bft) 95,74 %
08.11.2025 09:46 5,4 °C 5,6 °C 2,2 °C 99 % 1014,6 hPa 0,0 l/m² 0 min 0 min 74 W/m² 9,7 km/h (2 Bft) 97,14 %
08.11.2025 09:48 5,4 °C 5,6 °C 2,2 °C 99 % 1014,6 hPa 0,0 l/m² 0 min 0 min 74 W/m² 12,9 km/h (3 Bft) 93,62 %
08.11.2025 09:50 5,4 °C 5,6 °C 2,2 °C 99 % 1014,6 hPa 0,0 l/m² 0 min 0 min 75 W/m² 3,2 km/h (1 Bft) 95,74 %
08.11.2025 09:52 5,4 °C 5,6 °C 2,2 °C 99 % 1014,6 hPa 0,0 l/m² 0 min 0 min 81 W/m² 3,2 km/h (1 Bft) 100,00 %
08.11.2025 09:54 5,5 °C 5,6 °C 2,2 °C 99 % 1014,6 hPa 0,0 l/m² 0 min 0 min 88 W/m² 9,7 km/h (2 Bft) 100,00 %
08.11.2025 09:56 5,5 °C 5,6 °C 2,2 °C 99 % 1014,5 hPa 0,0 l/m² 0 min 0 min 93 W/m² 12,9 km/h (3 Bft) 100,00 %
08.11.2025 09:58 5,5 °C 5,6 °C 2,2 °C 99 % 1014,4 hPa 0,0 l/m² 0 min 0 min 96 W/m² 6,4 km/h (2 Bft) 98,25 %
08.11.2025 10:00 5,5 °C 5,6 °C 2,2 °C 99 % 1014,5 hPa 0,0 l/m² 0 min 0 min 80 W/m² 12,9 km/h (3 Bft) 97,73 %
08.11.2025 10:02 5,5 °C 5,6 °C 2,2 °C 99 % 1014,4 hPa 0,0 l/m² 0 min 0 min 72 W/m² 9,7 km/h (2 Bft) 100,00 %
08.11.2025 10:04 5,5 °C 5,6 °C 2,2 °C 99 % 1014,4 hPa 0,0 l/m² 0 min 0 min 53 W/m² 12,9 km/h (3 Bft) 100,00 %
08.11.2025 10:06 5,5 °C 5,6 °C 2,2 °C 99 % 1014,5 hPa 0,0 l/m² 0 min 0 min 79 W/m² 12,9 km/h (3 Bft) 100,00 %
08.11.2025 10:08 5,5 °C 6,1 °C 2,2 °C 99 % 1014,7 hPa 0,0 l/m² 0 min 0 min 108 W/m² 3,2 km/h (1 Bft) 100,00 %
08.11.2025 10:10 5,6 °C 5,6 °C 2,2 °C 99 % 1014,6 hPa 0,0 l/m² 0 min 0 min 87 W/m² 9,7 km/h (2 Bft) 100,00 %
08.11.2025 10:12 5,5 °C 5,6 °C 2,2 °C 99 % 1014,5 hPa 0,0 l/m² 0 min 0 min 89 W/m² 6,4 km/h (2 Bft) 100,00 %
08.11.2025 10:14 5,6 °C 6,1 °C 2,2 °C 99 % 1014,6 hPa 0,0 l/m² 0 min 0 min 114 W/m² 6,4 km/h (2 Bft) 97,87 %
08.11.2025 10:16 5,6 °C 6,1 °C 2,2 °C 98 % 1014,5 hPa 0,0 l/m² 0 min 0 min 107 W/m² 6,4 km/h (2 Bft) 100,00 %
08.11.2025 10:18 5,6 °C 6,1 °C 2,8 °C 98 % 1014,6 hPa 0,0 l/m² 0 min 0 min 99 W/m² 6,4 km/h (2 Bft) 100,00 %
08.11.2025 10:20 5,6 °C 6,1 °C 2,8 °C 98 % 1014,5 hPa 0,0 l/m² 0 min 0 min 111 W/m² 6,4 km/h (2 Bft) 100,00 %
08.11.2025 10:22 5,6 °C 6,1 °C 2,8 °C 98 % 1014,6 hPa 0,0 l/m² 0 min 0 min 118 W/m² 6,4 km/h (2 Bft) 100,00 %
08.11.2025 10:24 5,6 °C 6,1 °C 2,8 °C 98 % 1014,6 hPa 0,0 l/m² 0 min 0 min 119 W/m² 6,4 km/h (2 Bft) 97,83 %
08.11.2025 10:26 5,7 °C 6,7 °C 2,8 °C 98 % 1014,6 hPa 0,0 l/m² 0 min 0 min 112 W/m² 3,2 km/h (1 Bft) 98,21 %
08.11.2025 10:28 5,7 °C 6,7 °C 2,8 °C 98 % 1014,5 hPa 0,0 l/m² 0 min 0 min 113 W/m² 6,4 km/h (2 Bft) 100,00 %
08.11.2025 10:30 5,7 °C 6,7 °C 2,8 °C 98 % 1014,5 hPa 0,0 l/m² 0 min 0 min 116 W/m² 6,4 km/h (2 Bft) 100,00 %
08.11.2025 10:32 5,8 °C 6,7 °C 2,8 °C 99 % 1014,6 hPa 0,0 l/m² 0 min 0 min 117 W/m² 9,7 km/h (2 Bft) 97,83 %
08.11.2025 10:34 5,8 °C 6,7 °C 2,8 °C 99 % 1014,6 hPa 0,0 l/m² 0 min 0 min 117 W/m² 6,4 km/h (2 Bft) 98,15 %
08.11.2025 10:36 5,8 °C 6,7 °C 2,8 °C 99 % 1014,6 hPa 0,0 l/m² 0 min 0 min 124 W/m² 9,7 km/h (2 Bft) 100,00 %
08.11.2025 10:38 5,8 °C 6,7 °C 2,8 °C 99 % 1014,6 hPa 0,0 l/m² 0 min 0 min 126 W/m² 9,7 km/h (2 Bft) 100,00 %
08.11.2025 10:40 5,9 °C 6,7 °C 2,8 °C 99 % 1014,6 hPa 0,0 l/m² 0 min 0 min 125 W/m² 6,4 km/h (2 Bft) 100,00 %
08.11.2025 10:42 5,9 °C 6,7 °C 2,8 °C 99 % 1014,6 hPa 0,0 l/m² 0 min 0 min 128 W/m² 6,4 km/h (2 Bft) 100,00 %
08.11.2025 10:44 5,9 °C 6,7 °C 2,8 °C 99 % 1014,7 hPa 0,0 l/m² 0 min 0 min 125 W/m² 6,4 km/h (2 Bft) 98,21 %
08.11.2025 10:46 5,9 °C 6,7 °C 2,8 °C 99 % 1014,7 hPa 0,0 l/m² 0 min 0 min 131 W/m² 12,9 km/h (3 Bft) 100,00 %
08.11.2025 10:48 5,9 °C 6,7 °C 2,8 °C 99 % 1014,7 hPa 0,0 l/m² 0 min 0 min 124 W/m² 12,9 km/h (3 Bft) 100,00 %
08.11.2025 10:50 5,9 °C 6,7 °C 2,8 °C 99 % 1014,8 hPa 0,0 l/m² 0 min 0 min 126 W/m² 12,9 km/h (3 Bft) 98,18 %
08.11.2025 10:52 5,9 °C 6,7 °C 2,8 °C 99 % 1014,7 hPa 0,0 l/m² 0 min 0 min 119 W/m² 6,4 km/h (2 Bft) 97,37 %
08.11.2025 10:54 6,0 °C 6,7 °C 2,8 °C 99 % 1014,7 hPa 0,0 l/m² 0 min 0 min 124 W/m² 12,9 km/h (3 Bft) 100,00 %
08.11.2025 10:56 6,0 °C 6,7 °C 3,3 °C 99 % 1014,7 hPa 0,0 l/m² 0 min 0 min 123 W/m² 3,2 km/h (1 Bft) 100,00 %
08.11.2025 10:58 6,1 °C 6,7 °C 3,3 °C 99 % 1014,8 hPa 0,0 l/m² 0 min 0 min 125 W/m² 6,4 km/h (2 Bft) 97,73 %
08.11.2025 11:00 6,1 °C 6,7 °C 3,3 °C 99 % 1014,8 hPa 0,0 l/m² 0 min 0 min 128 W/m² 16,1 km/h (3 Bft) 100,00 %
08.11.2025 11:02 6,1 °C 6,7 °C 3,3 °C 99 % 1014,8 hPa 0,0 l/m² 0 min 0 min 120 W/m² 9,7 km/h (2 Bft) 97,83 %
08.11.2025 11:04 6,1 °C 6,7 °C 3,3 °C 99 % 1014,8 hPa 0,0 l/m² 0 min 0 min 115 W/m² 6,4 km/h (2 Bft) 100,00 %
08.11.2025 11:06 6,1 °C 6,7 °C 3,3 °C 99 % 1014,8 hPa 0,0 l/m² 0 min 0 min 120 W/m² 6,4 km/h (2 Bft) 98,21 %
08.11.2025 11:08 6,2 °C 6,7 °C 3,3 °C 99 % 1014,8 hPa 0,0 l/m² 0 min 0 min 126 W/m² 3,2 km/h (1 Bft) 97,50 %
08.11.2025 11:10 6,2 °C 7,2 °C 3,3 °C 99 % 1014,8 hPa 0,0 l/m² 0 min 0 min 126 W/m² 9,7 km/h (2 Bft) 95,74 %
08.11.2025 11:12 6,2 °C 7,2 °C 3,3 °C 99 % 1014,8 hPa 0,0 l/m² 0 min 0 min 123 W/m² 9,7 km/h (2 Bft) 95,74 %
08.11.2025 11:14 6,3 °C 7,2 °C 3,3 °C 99 % 1014,8 hPa 0,0 l/m² 0 min 0 min 130 W/m² 6,4 km/h (2 Bft) 95,45 %
08.11.2025 11:16 6,3 °C 7,2 °C 3,3 °C 99 % 1014,8 hPa 0,0 l/m² 0 min 0 min 122 W/m² 12,9 km/h (3 Bft) 94,64 %
08.11.2025 11:18 6,3 °C 7,2 °C 3,3 °C 99 % 1014,8 hPa 0,0 l/m² 0 min 0 min 128 W/m² 9,7 km/h (2 Bft) 95,00 %
08.11.2025 11:20 6,3 °C 7,2 °C 3,3 °C 99 % 1014,9 hPa 0,0 l/m² 0 min 0 min 125 W/m² 9,7 km/h (2 Bft) 95,74 %
08.11.2025 11:22 6,4 °C 7,2 °C 3,3 °C 99 % 1014,8 hPa 0,0 l/m² 0 min 0 min 130 W/m² 9,7 km/h (2 Bft) 95,45 %
08.11.2025 11:24 6,4 °C 7,2 °C 3,3 °C 99 % 1014,9 hPa 0,0 l/m² 0 min 0 min 138 W/m² 6,4 km/h (2 Bft) 94,74 %
08.11.2025 11:26 6,4 °C 7,2 °C 3,9 °C 99 % 1014,8 hPa 0,0 l/m² 0 min 0 min 144 W/m² 6,4 km/h (2 Bft) 92,31 %
08.11.2025 11:28 6,4 °C 7,2 °C 3,9 °C 99 % 1014,8 hPa 0,0 l/m² 0 min 0 min 140 W/m² 6,4 km/h (2 Bft) 93,62 %
08.11.2025 11:30 6,5 °C 7,2 °C 3,3 °C 99 % 1014,8 hPa 0,0 l/m² 0 min 0 min 142 W/m² 6,4 km/h (2 Bft) 93,48 %
08.11.2025 11:32 6,5 °C 7,2 °C 3,9 °C 99 % 1014,8 hPa 0,0 l/m² 0 min 0 min 142 W/m² 6,4 km/h (2 Bft) 94,64 %
08.11.2025 11:34 6,5 °C 7,2 °C 3,9 °C 99 % 1014,8 hPa 0,0 l/m² 0 min 0 min 155 W/m² 3,2 km/h (1 Bft) 95,65 %
08.11.2025 11:36 6,6 °C 7,8 °C 3,9 °C 99 % 1014,8 hPa 0,0 l/m² 0 min 0 min 148 W/m² 6,4 km/h (2 Bft) 94,87 %
08.11.2025 11:38 6,6 °C 7,8 °C 3,9 °C 99 % 1014,8 hPa 0,0 l/m² 0 min 0 min 148 W/m² 3,2 km/h (1 Bft) 95,74 %
08.11.2025 11:40 6,6 °C 7,8 °C 3,9 °C 99 % 1014,8 hPa 0,0 l/m² 0 min 0 min 151 W/m² 6,4 km/h (2 Bft) 95,74 %
08.11.2025 11:42 6,7 °C 7,8 °C 3,9 °C 99 % 1014,8 hPa 0,0 l/m² 0 min 0 min 151 W/m² 3,2 km/h (1 Bft) 93,62 %
08.11.2025 11:44 6,7 °C 7,8 °C 3,9 °C 99 % 1014,8 hPa 0,0 l/m² 0 min 0 min 154 W/m² 6,4 km/h (2 Bft) 95,65 %
08.11.2025 11:46 6,7 °C 7,8 °C 3,9 °C 99 % 1014,8 hPa 0,0 l/m² 0 min 0 min 163 W/m² 6,4 km/h (2 Bft) 93,62 %
08.11.2025 11:48 6,8 °C 7,8 °C 3,9 °C 99 % 1014,8 hPa 0,0 l/m² 0 min 0 min 163 W/m² 9,7 km/h (2 Bft) 97,78 %
08.11.2025 11:50 6,8 °C 7,8 °C 4,4 °C 99 % 1014,8 hPa 0,0 l/m² 0 min 0 min 151 W/m² 6,4 km/h (2 Bft) 98,25 %
08.11.2025 11:52 6,8 °C 7,8 °C 3,9 °C 99 % 1014,8 hPa 0,0 l/m² 0 min 0 min 138 W/m² 6,4 km/h (2 Bft) 97,44 %
08.11.2025 11:54 6,9 °C 7,8 °C 3,9 °C 99 % 1014,9 hPa 0,0 l/m² 0 min 0 min 146 W/m² 6,4 km/h (2 Bft) 97,87 %
08.11.2025 11:56 6,9 °C 8,3 °C 4,4 °C 99 % 1014,8 hPa 0,0 l/m² 0 min 0 min 172 W/m² 3,2 km/h (1 Bft) 98,15 %
08.11.2025 11:58 6,9 °C 8,3 °C 4,4 °C 99 % 1014,8 hPa 0,0 l/m² 0 min 0 min 174 W/m² 3,2 km/h (1 Bft) 91,30 %
08.11.2025 12:00 7,0 °C 8,3 °C 4,4 °C 99 % 1014,8 hPa 0,0 l/m² 0 min 0 min 168 W/m² 6,4 km/h (2 Bft) 100,00 %
08.11.2025 12:02 7,0 °C 8,3 °C 4,4 °C 99 % 1014,8 hPa 0,0 l/m² 0 min 0 min 167 W/m² 9,7 km/h (2 Bft) 93,62 %
08.11.2025 12:04 7,1 °C 8,3 °C 4,4 °C 99 % 1014,9 hPa 0,0 l/m² 0 min 0 min 159 W/m² 6,4 km/h (2 Bft) 100,00 %
08.11.2025 12:08 7,1 °C 8,3 °C 4,4 °C 99 % 1014,8 hPa 0,0 l/m² 0 min 0 min 156 W/m² 9,7 km/h (2 Bft) 97,78 %
08.11.2025 12:10 7,2 °C 8,9 °C 4,4 °C 99 % 1014,8 hPa 0,0 l/m² 0 min 0 min 175 W/m² 6,4 km/h (2 Bft) 98,00 %
08.11.2025 12:12 7,2 °C 8,9 °C 4,4 °C 99 % 1014,8 hPa 0,0 l/m² 2 min 0 min 191 W/m² 6,4 km/h (2 Bft) 97,87 %
08.11.2025 12:16 7,3 °C 8,9 °C 4,4 °C 99 % 1014,7 hPa 0,0 l/m² 4 min 0 min 189 W/m² 6,4 km/h (2 Bft) 97,87 %
08.11.2025 12:18 7,3 °C 9,4 °C 4,4 °C 99 % 1014,7 hPa 0,0 l/m² 2 min 0 min 201 W/m² 6,4 km/h (2 Bft) 97,87 %
08.11.2025 12:20 7,3 °C 9,4 °C 5,0 °C 99 % 1014,7 hPa 0,0 l/m² 2 min 0 min 216 W/m² 3,2 km/h (1 Bft) 97,83 %
08.11.2025 12:22 7,4 °C 10,0 °C 5,0 °C 99 % 1014,7 hPa 0,0 l/m² 2 min 0 min 218 W/m² 3,2 km/h (1 Bft) 97,83 %
08.11.2025 12:24 7,4 °C 10,6 °C 5,0 °C 99 % 1014,7 hPa 0,0 l/m² 2 min 0 min 239 W/m² 3,2 km/h (1 Bft) 97,78 %
08.11.2025 12:26 7,5 °C 10,0 °C 5,0 °C 99 % 1014,7 hPa 0,0 l/m² 0 min 0 min 187 W/m² 6,4 km/h (2 Bft) 96,49 %
08.11.2025 12:28 7,6 °C 9,4 °C 5,0 °C 99 % 1014,7 hPa 0,0 l/m² 0 min 0 min 170 W/m² 6,4 km/h (2 Bft) 95,74 %
08.11.2025 12:30 7,6 °C 9,4 °C 5,0 °C 99 % 1014,7 hPa 0,0 l/m² 0 min 0 min 174 W/m² 3,2 km/h (1 Bft) 100,00 %
08.11.2025 12:32 7,6 °C 9,4 °C 5,0 °C 99 % 1014,6 hPa 0,0 l/m² 2 min 0 min 215 W/m² 6,4 km/h (2 Bft) 100,00 %
08.11.2025 12:34 7,6 °C 10,0 °C 5,0 °C 99 % 1014,6 hPa 0,0 l/m² 2 min 0 min 218 W/m² 6,4 km/h (2 Bft) 100,00 %
08.11.2025 12:36 7,6 °C 10,0 °C 5,0 °C 99 % 1014,6 hPa 0,0 l/m² 2 min 0 min 196 W/m² 6,4 km/h (2 Bft) 95,74 %
08.11.2025 12:38 7,7 °C 10,0 °C 5,0 °C 99 % 1014,6 hPa 0,0 l/m² 2 min 0 min 201 W/m² 6,4 km/h (2 Bft) 98,15 %
08.11.2025 12:40 7,7 °C 10,0 °C 5,0 °C 99 % 1014,6 hPa 0,0 l/m² 2 min 0 min 215 W/m² 9,7 km/h (2 Bft) 97,44 %
08.11.2025 12:42 7,7 °C 10,0 °C 5,0 °C 99 % 1014,6 hPa 0,0 l/m² 2 min 0 min 205 W/m² 6,4 km/h (2 Bft) 97,78 %
08.11.2025 12:44 7,7 °C 9,4 °C 5,0 °C 99 % 1014,7 hPa 0,0 l/m² 0 min 0 min 169 W/m² 9,7 km/h (2 Bft) 96,43 %
08.11.2025 12:46 7,8 °C 9,4 °C 5,0 °C 99 % 1014,7 hPa 0,0 l/m² 2 min 0 min 191 W/m² 3,2 km/h (1 Bft) 95,00 %
08.11.2025 12:48 7,8 °C 9,4 °C 5,0 °C 99 % 1014,7 hPa 0,0 l/m² 2 min 0 min 188 W/m² 6,4 km/h (2 Bft) 100,00 %
08.11.2025 12:50 7,8 °C 10,0 °C 5,0 °C 99 % 1014,7 hPa 0,0 l/m² 2 min 0 min 221 W/m² 6,4 km/h (2 Bft) 100,00 %
08.11.2025 12:52 7,9 °C 11,1 °C 5,6 °C 99 % 1014,7 hPa 0,0 l/m² 2 min 0 min 268 W/m² 6,4 km/h (2 Bft) 100,00 %
08.11.2025 12:54 7,9 °C 13,3 °C 5,6 °C 99 % 1014,7 hPa 0,0 l/m² 2 min 0 min 422 W/m² 9,7 km/h (2 Bft) 100,00 %
08.11.2025 12:56 8,1 °C 14,4 °C 5,6 °C 99 % 1014,7 hPa 0,0 l/m² 2 min 0 min 375 W/m² 6,4 km/h (2 Bft) 100,00 %
08.11.2025 12:58 8,2 °C 14,4 °C 5,6 °C 99 % 1014,7 hPa 0,0 l/m² 2 min 0 min 281 W/m² 3,2 km/h (1 Bft) 100,00 %
08.11.2025 13:00 8,3 °C 13,3 °C 5,6 °C 99 % 1014,7 hPa 0,0 l/m² 2 min 0 min 230 W/m² 12,9 km/h (3 Bft) 100,00 %
08.11.2025 13:02 8,4 °C 12,8 °C 5,6 °C 99 % 1014,7 hPa 0,0 l/m² 2 min 0 min 278 W/m² 9,7 km/h (2 Bft) 100,00 %
08.11.2025 13:04 8,4 °C 12,8 °C 5,6 °C 99 % 1014,7 hPa 0,0 l/m² 2 min 0 min 227 W/m² 6,4 km/h (2 Bft) 100,00 %
08.11.2025 13:08 8,6 °C 12,8 °C 5,6 °C 99 % 1014,7 hPa 0,0 l/m² 4 min 0 min 247 W/m² 3,2 km/h (1 Bft) 98,91 %
08.11.2025 13:10 8,6 °C 12,2 °C 5,6 °C 99 % 1014,7 hPa 0,0 l/m² 2 min 0 min 213 W/m² 3,2 km/h (1 Bft) 100,00 %
08.11.2025 13:12 8,6 °C 12,2 °C 5,6 °C 99 % 1014,7 hPa 0,0 l/m² 2 min 0 min 220 W/m² 6,4 km/h (2 Bft) 98,08 %
08.11.2025 13:14 8,7 °C 13,9 °C 5,6 °C 99 % 1014,6 hPa 0,0 l/m² 2 min 0 min 311 W/m² 6,4 km/h (2 Bft) 95,24 %
08.11.2025 13:16 8,7 °C 15,0 °C 5,6 °C 99 % 1014,6 hPa 0,0 l/m² 2 min 0 min 354 W/m² 3,2 km/h (1 Bft) 100,00 %
08.11.2025 13:18 8,8 °C 16,1 °C 5,6 °C 99 % 1014,6 hPa 0,0 l/m² 2 min 0 min 341 W/m² 6,4 km/h (2 Bft) 100,00 %
08.11.2025 13:20 8,8 °C 16,7 °C 5,6 °C 99 % 1014,6 hPa 0,0 l/m² 2 min 0 min 349 W/m² 0,0 km/h (0 Bft) 100,00 %
08.11.2025 13:22 8,9 °C 16,7 °C 5,0 °C 99 % 1014,6 hPa 0,0 l/m² 2 min 0 min 340 W/m² 3,2 km/h (1 Bft) 98,08 %
08.11.2025 13:24 9,1 °C 16,1 °C 5,0 °C 99 % 1014,6 hPa 0,0 l/m² 2 min 0 min 342 W/m² 3,2 km/h (1 Bft) 97,87 %
08.11.2025 13:26 9,1 °C 15,6 °C 5,6 °C 99 % 1014,6 hPa 0,0 l/m² 2 min 0 min 345 W/m² 3,2 km/h (1 Bft) 95,74 %
08.11.2025 13:28 9,2 °C 15,0 °C 5,0 °C 99 % 1014,6 hPa 0,0 l/m² 2 min 0 min 332 W/m² 3,2 km/h (1 Bft) 95,74 %
08.11.2025 13:30 9,2 °C 15,6 °C 5,6 °C 99 % 1014,6 hPa 0,0 l/m² 2 min 0 min 342 W/m² 3,2 km/h (1 Bft) 97,87 %
08.11.2025 13:32 9,3 °C 15,6 °C 5,6 °C 99 % 1014,7 hPa 0,0 l/m² 2 min 0 min 364 W/m² 3,2 km/h (1 Bft) 97,87 %
08.11.2025 13:34 9,4 °C 13,9 °C 5,6 °C 99 % 1014,6 hPa 0,0 l/m² 0 min 0 min 146 W/m² 3,2 km/h (1 Bft) 97,83 %
08.11.2025 13:36 9,4 °C 12,8 °C 5,6 °C 99 % 1014,6 hPa 0,0 l/m² 0 min 0 min 150 W/m² 3,2 km/h (1 Bft) 97,87 %
08.11.2025 13:38 9,4 °C 12,2 °C 5,0 °C 99 % 1014,6 hPa 0,0 l/m² 0 min 0 min 100 W/m² 3,2 km/h (1 Bft) 95,74 %
08.11.2025 13:40 9,4 °C 11,7 °C 5,0 °C 99 % 1014,6 hPa 0,0 l/m² 0 min 0 min 91 W/m² 0,0 km/h (0 Bft) 95,74 %
08.11.2025 13:42 9,4 °C 11,1 °C 5,0 °C 99 % 1014,6 hPa 0,0 l/m² 0 min 0 min 100 W/m² 3,2 km/h (1 Bft) 94,74 %
08.11.2025 13:44 9,4 °C 10,6 °C 5,0 °C 99 % 1014,6 hPa 0,0 l/m² 0 min 0 min 103 W/m² 0,0 km/h (0 Bft) 95,74 %
08.11.2025 13:46 9,4 °C 10,6 °C 5,0 °C 99 % 1014,5 hPa 0,0 l/m² 0 min 0 min 100 W/m² 0,0 km/h (0 Bft) 94,83 %
08.11.2025 13:48 9,4 °C 10,6 °C 5,0 °C 99 % 1014,5 hPa 0,0 l/m² 0 min 0 min 101 W/m² 0,0 km/h (0 Bft) 95,74 %
08.11.2025 13:50 9,4 °C 10,6 °C 5,6 °C 99 % 1014,5 hPa 0,0 l/m² 0 min 0 min 110 W/m² 0,0 km/h (0 Bft) 95,65 %
08.11.2025 13:52 9,4 °C 10,6 °C 5,6 °C 98 % 1014,5 hPa 0,0 l/m² 0 min 0 min 120 W/m² 0,0 km/h (0 Bft) 95,45 %
08.11.2025 13:54 9,4 °C 10,6 °C 5,6 °C 99 % 1014,5 hPa 0,0 l/m² 0 min 0 min 125 W/m² 0,0 km/h (0 Bft) 94,87 %
08.11.2025 13:56 9,4 °C 10,6 °C 5,6 °C 99 % 1014,6 hPa 0,0 l/m² 0 min 0 min 123 W/m² 0,0 km/h (0 Bft) 93,62 %
08.11.2025 13:58 9,4 °C 10,6 °C 5,6 °C 98 % 1014,6 hPa 0,0 l/m² 0 min 0 min 124 W/m² 0,0 km/h (0 Bft) 96,55 %
08.11.2025 14:00 9,4 °C 10,6 °C 5,6 °C 98 % 1014,5 hPa 0,0 l/m² 0 min 0 min 127 W/m² 0,0 km/h (0 Bft) 93,62 %
08.11.2025 14:02 9,5 °C 10,6 °C 6,1 °C 98 % 1014,5 hPa 0,0 l/m² 0 min 0 min 127 W/m² 0,0 km/h (0 Bft) 95,45 %
08.11.2025 14:04 9,5 °C 10,6 °C 6,1 °C 98 % 1014,5 hPa 0,0 l/m² 0 min 0 min 128 W/m² 0,0 km/h (0 Bft) 93,48 %
08.11.2025 14:06 9,5 °C 10,6 °C 6,1 °C 98 % 1014,4 hPa 0,0 l/m² 0 min 0 min 129 W/m² 0,0 km/h (0 Bft) 92,16 %
08.11.2025 14:08 9,6 °C 10,6 °C 6,1 °C 98 % 1014,5 hPa 0,0 l/m² 0 min 0 min 126 W/m² 0,0 km/h (0 Bft) 95,65 %
08.11.2025 14:10 9,6 °C 10,6 °C 6,1 °C 98 % 1014,5 hPa 0,0 l/m² 0 min 0 min 122 W/m² 0,0 km/h (0 Bft) 94,44 %
08.11.2025 14:12 9,6 °C 10,6 °C 6,1 °C 98 % 1014,5 hPa 0,0 l/m² 0 min 0 min 121 W/m² 0,0 km/h (0 Bft) 96,61 %
08.11.2025 14:14 9,6 °C 10,6 °C 6,1 °C 98 % 1014,5 hPa 0,0 l/m² 0 min 0 min 117 W/m² 0,0 km/h (0 Bft) 93,02 %
08.11.2025 14:16 9,6 °C 10,6 °C 6,1 °C 98 % 1014,5 hPa 0,0 l/m² 0 min 0 min 114 W/m² 0,0 km/h (0 Bft) 96,08 %
08.11.2025 14:18 9,6 °C 10,6 °C 6,1 °C 98 % 1014,4 hPa 0,0 l/m² 0 min 0 min 114 W/m² 0,0 km/h (0 Bft) 97,67 %
08.11.2025 14:21 9,7 °C 10,6 °C 6,1 °C 98 % 1014,5 hPa 0,0 l/m² 0 min 0 min 115 W/m² 0,0 km/h (0 Bft) 95,95 %
08.11.2025 14:22 9,7 °C 10,6 °C 6,1 °C 98 % 1014,5 hPa 0,0 l/m² 0 min 0 min 114 W/m² 0,0 km/h (0 Bft) 95,24 %
08.11.2025 14:26 9,7 °C 10,6 °C 6,1 °C 98 % 1014,5 hPa 0,0 l/m² 0 min 0 min 99 W/m² 0,0 km/h (0 Bft) 100,00 %
08.11.2025 14:28 9,7 °C 10,6 °C 6,1 °C 97 % 1014,5 hPa 0,0 l/m² 0 min 0 min 88 W/m² 0,0 km/h (0 Bft) 100,00 %
08.11.2025 14:30 9,7 °C 10,0 °C 6,1 °C 97 % 1014,5 hPa 0,0 l/m² 0 min 0 min 82 W/m² 0,0 km/h (0 Bft) 97,73 %
08.11.2025 14:32 9,7 °C 10,0 °C 6,1 °C 97 % 1014,5 hPa 0,0 l/m² 0 min 0 min 75 W/m² 0,0 km/h (0 Bft) 100,00 %
08.11.2025 14:34 9,8 °C 10,0 °C 6,1 °C 97 % 1014,5 hPa 0,0 l/m² 0 min 0 min 73 W/m² 0,0 km/h (0 Bft) 100,00 %
08.11.2025 14:36 9,8 °C 10,0 °C 6,1 °C 97 % 1014,5 hPa 0,0 l/m² 0 min 0 min 71 W/m² 0,0 km/h (0 Bft) 100,00 %
08.11.2025 14:38 9,8 °C 10,0 °C 6,1 °C 97 % 1014,4 hPa 0,0 l/m² 0 min 0 min 73 W/m² 6,4 km/h (2 Bft) 97,56 %
08.11.2025 14:40 9,8 °C 10,0 °C 6,1 °C 97 % 1014,4 hPa 0,0 l/m² 0 min 0 min 72 W/m² 6,4 km/h (2 Bft) 100,00 %
08.11.2025 14:42 9,8 °C 10,0 °C 6,1 °C 97 % 1014,4 hPa 0,0 l/m² 0 min 0 min 69 W/m² 3,2 km/h (1 Bft) 100,00 %
08.11.2025 14:44 9,8 °C 10,0 °C 6,1 °C 97 % 1014,5 hPa 0,0 l/m² 0 min 0 min 64 W/m² 0,0 km/h (0 Bft) 100,00 %
08.11.2025 14:46 9,8 °C 10,0 °C 6,1 °C 97 % 1014,5 hPa 0,0 l/m² 0 min 0 min 63 W/m² 3,2 km/h (1 Bft) 100,00 %
08.11.2025 14:48 9,8 °C 10,0 °C 6,1 °C 97 % 1014,4 hPa 0,0 l/m² 0 min 0 min 63 W/m² 3,2 km/h (1 Bft) 100,00 %
08.11.2025 14:50 9,8 °C 10,0 °C 6,1 °C 96 % 1014,4 hPa 0,0 l/m² 0 min 0 min 63 W/m² 3,2 km/h (1 Bft) 98,31 %
08.11.2025 14:52 9,9 °C 10,0 °C 6,1 °C 96 % 1014,5 hPa 0,0 l/m² 0 min 0 min 62 W/m² 9,7 km/h (2 Bft) 97,62 %
08.11.2025 14:54 9,9 °C 10,0 °C 6,1 °C 96 % 1014,5 hPa 0,0 l/m² 0 min 0 min 62 W/m² 6,4 km/h (2 Bft) 100,00 %
08.11.2025 14:56 9,9 °C 10,0 °C 6,1 °C 96 % 1014,5 hPa 0,0 l/m² 0 min 0 min 60 W/m² 3,2 km/h (1 Bft) 98,18 %
08.11.2025 14:58 9,9 °C 10,0 °C 6,1 °C 96 % 1014,5 hPa 0,0 l/m² 0 min 0 min 58 W/m² 3,2 km/h (1 Bft) 100,00 %
08.11.2025 15:00 9,9 °C 10,0 °C 6,1 °C 96 % 1014,5 hPa 0,0 l/m² 0 min 0 min 58 W/m² 3,2 km/h (1 Bft) 100,00 %
08.11.2025 15:02 9,9 °C 10,0 °C 6,1 °C 96 % 1014,5 hPa 0,0 l/m² 0 min 0 min 58 W/m² 6,4 km/h (2 Bft) 100,00 %
08.11.2025 15:04 10,0 °C 10,0 °C 6,1 °C 96 % 1014,5 hPa 0,0 l/m² 0 min 0 min 54 W/m² 6,4 km/h (2 Bft) 100,00 %
08.11.2025 15:06 10,0 °C 10,0 °C 6,1 °C 96 % 1014,6 hPa 0,0 l/m² 0 min 0 min 48 W/m² 3,2 km/h (1 Bft) 98,18 %
08.11.2025 15:08 10,0 °C 10,0 °C 6,1 °C 96 % 1014,5 hPa 0,0 l/m² 0 min 0 min 45 W/m² 0,0 km/h (0 Bft) 100,00 %
08.11.2025 15:10 10,0 °C 10,0 °C 6,1 °C 96 % 1014,5 hPa 0,0 l/m² 0 min 0 min 42 W/m² 6,4 km/h (2 Bft) 98,28 %
08.11.2025 15:12 10,1 °C 10,0 °C 6,1 °C 96 % 1014,4 hPa 0,0 l/m² 0 min 0 min 39 W/m² 3,2 km/h (1 Bft) 94,44 %
08.11.2025 15:14 10,1 °C 10,0 °C 6,1 °C 96 % 1014,5 hPa 0,0 l/m² 0 min 0 min 33 W/m² 6,4 km/h (2 Bft) 94,83 %
08.11.2025 15:16 10,1 °C 10,0 °C 6,1 °C 95 % 1014,4 hPa 0,0 l/m² 0 min 0 min 28 W/m² 6,4 km/h (2 Bft) 100,00 %
08.11.2025 15:18 10,1 °C 10,0 °C 6,1 °C 95 % 1014,4 hPa 0,0 l/m² 0 min 0 min 29 W/m² 3,2 km/h (1 Bft) 97,56 %
08.11.2025 15:20 10,1 °C 10,0 °C 6,1 °C 95 % 1014,4 hPa 0,0 l/m² 0 min 0 min 33 W/m² 3,2 km/h (1 Bft) 94,44 %
08.11.2025 15:22 10,1 °C 10,0 °C 6,1 °C 95 % 1014,4 hPa 0,0 l/m² 0 min 0 min 36 W/m² 3,2 km/h (1 Bft) 97,44 %
08.11.2025 15:24 10,1 °C 10,0 °C 6,1 °C 95 % 1014,4 hPa 0,0 l/m² 0 min 0 min 37 W/m² 0,0 km/h (0 Bft) 98,21 %
08.11.2025 15:26 10,1 °C 10,0 °C 6,1 °C 95 % 1014,4 hPa 0,0 l/m² 0 min 0 min 36 W/m² 0,0 km/h (0 Bft) 97,37 %
08.11.2025 15:28 10,1 °C 10,0 °C 6,1 °C 95 % 1014,4 hPa 0,0 l/m² 0 min 0 min 33 W/m² 3,2 km/h (1 Bft) 98,25 %
08.11.2025 15:30 10,1 °C 10,0 °C 6,1 °C 95 % 1014,4 hPa 0,0 l/m² 0 min 0 min 31 W/m² 3,2 km/h (1 Bft) 97,22 %
08.11.2025 15:32 10,2 °C 10,0 °C 6,1 °C 95 % 1014,4 hPa 0,0 l/m² 0 min 0 min 30 W/m² 0,0 km/h (0 Bft) 97,87 %
08.11.2025 15:34 10,2 °C 10,0 °C 6,1 °C 95 % 1014,4 hPa 0,0 l/m² 0 min 0 min 30 W/m² 0,0 km/h (0 Bft) 98,15 %
08.11.2025 15:36 10,2 °C 10,0 °C 6,1 °C 95 % 1014,4 hPa 0,0 l/m² 0 min 0 min 29 W/m² 0,0 km/h (0 Bft) 97,50 %
08.11.2025 15:38 10,2 °C 10,0 °C 6,1 °C 95 % 1014,4 hPa 0,0 l/m² 0 min 0 min 28 W/m² 0,0 km/h (0 Bft) 98,25 %
08.11.2025 15:40 10,2 °C 10,0 °C 6,1 °C 95 % 1014,4 hPa 0,0 l/m² 0 min 0 min 32 W/m² 6,4 km/h (2 Bft) 97,30 %
08.11.2025 15:42 10,2 °C 10,0 °C 6,1 °C 95 % 1014,4 hPa 0,0 l/m² 0 min 0 min 40 W/m² 6,4 km/h (2 Bft) 97,83 %
08.11.2025 15:44 10,2 °C 10,0 °C 6,1 °C 95 % 1014,4 hPa 0,0 l/m² 0 min 0 min 50 W/m² 3,2 km/h (1 Bft) 98,18 %
08.11.2025 15:46 10,2 °C 10,0 °C 6,1 °C 95 % 1014,4 hPa 0,0 l/m² 0 min 0 min 60 W/m² 6,4 km/h (2 Bft) 97,44 %
08.11.2025 15:48 10,3 °C 10,0 °C 6,1 °C 94 % 1014,4 hPa 0,0 l/m² 0 min 0 min 60 W/m² 6,4 km/h (2 Bft) 94,74 %
08.11.2025 15:50 10,3 °C 10,0 °C 6,1 °C 94 % 1014,4 hPa 0,0 l/m² 0 min 0 min 54 W/m² 6,4 km/h (2 Bft) 97,30 %
08.11.2025 15:52 10,3 °C 10,0 °C 6,1 °C 94 % 1014,4 hPa 0,0 l/m² 0 min 0 min 46 W/m² 6,4 km/h (2 Bft) 93,62 %
08.11.2025 15:54 10,3 °C 10,0 °C 6,1 °C 94 % 1014,4 hPa 0,0 l/m² 0 min 0 min 40 W/m² 6,4 km/h (2 Bft) 96,36 %
08.11.2025 15:56 10,3 °C 10,0 °C 6,1 °C 94 % 1014,6 hPa 0,0 l/m² 0 min 0 min 38 W/m² 3,2 km/h (1 Bft) 97,37 %
08.11.2025 15:58 10,3 °C 10,0 °C 6,1 °C 94 % 1014,5 hPa 0,0 l/m² 0 min 0 min 35 W/m² 3,2 km/h (1 Bft) 97,87 %
08.11.2025 16:00 10,3 °C 10,0 °C 6,1 °C 94 % 1014,5 hPa 0,0 l/m² 0 min 0 min 33 W/m² 0,0 km/h (0 Bft) 96,43 %
08.11.2025 16:02 10,4 °C 10,0 °C 6,1 °C 94 % 1014,6 hPa 0,0 l/m² 0 min 0 min 31 W/m² 3,2 km/h (1 Bft) 97,37 %
08.11.2025 16:04 10,4 °C 10,0 °C 6,1 °C 94 % 1014,6 hPa 0,0 l/m² 0 min 0 min 31 W/m² 3,2 km/h (1 Bft) 95,74 %
08.11.2025 16:06 10,4 °C 10,0 °C 6,1 °C 94 % 1014,6 hPa 0,0 l/m² 0 min 0 min 29 W/m² 0,0 km/h (0 Bft) 97,92 %
08.11.2025 16:08 10,4 °C 10,0 °C 6,1 °C 94 % 1014,6 hPa 0,0 l/m² 0 min 0 min 25 W/m² 0,0 km/h (0 Bft) 97,87 %
08.11.2025 16:10 10,4 °C 10,0 °C 6,1 °C 94 % 1014,6 hPa 0,0 l/m² 0 min 0 min 24 W/m² 0,0 km/h (0 Bft) 98,18 %
08.11.2025 16:12 10,4 °C 10,0 °C 6,1 °C 94 % 1014,5 hPa 0,0 l/m² 0 min 0 min 24 W/m² 0,0 km/h (0 Bft) 97,44 %
08.11.2025 16:14 10,4 °C 10,0 °C 6,1 °C 94 % 1014,5 hPa 0,0 l/m² 0 min 0 min 23 W/m² 0,0 km/h (0 Bft) 93,62 %
08.11.2025 16:16 10,4 °C 10,0 °C 6,1 °C 94 % 1014,5 hPa 0,0 l/m² 0 min 0 min 23 W/m² 0,0 km/h (0 Bft) 98,11 %
08.11.2025 16:18 10,5 °C 10,0 °C 6,1 °C 94 % 1014,5 hPa 0,0 l/m² 0 min 0 min 21 W/m² 3,2 km/h (1 Bft) 95,65 %
08.11.2025 16:20 10,6 °C 10,0 °C 6,1 °C 94 % 1014,5 hPa 0,0 l/m² 0 min 0 min 21 W/m² 0,0 km/h (0 Bft) 95,74 %
08.11.2025 16:22 10,6 °C 10,0 °C 6,1 °C 94 % 1014,5 hPa 0,0 l/m² 0 min 0 min 23 W/m² 0,0 km/h (0 Bft) 95,12 %
08.11.2025 16:24 10,6 °C 10,6 °C 6,1 °C 94 % 1014,5 hPa 0,0 l/m² 0 min 0 min 27 W/m² 0,0 km/h (0 Bft) 97,78 %
08.11.2025 16:26 10,6 °C 10,6 °C 6,1 °C 94 % 1014,6 hPa 0,0 l/m² 0 min 0 min 27 W/m² 0,0 km/h (0 Bft) 97,96 %
08.11.2025 16:28 10,6 °C 10,6 °C 6,1 °C 94 % 1014,6 hPa 0,0 l/m² 0 min 0 min 24 W/m² 0,0 km/h (0 Bft) 95,65 %
08.11.2025 16:30 10,6 °C 10,6 °C 6,1 °C 94 % 1014,5 hPa 0,0 l/m² 0 min 0 min 21 W/m² 3,2 km/h (1 Bft) 98,18 %
08.11.2025 16:32 10,7 °C 10,6 °C 6,1 °C 94 % 1014,5 hPa 0,0 l/m² 0 min 0 min 19 W/m² 0,0 km/h (0 Bft) 97,44 %
08.11.2025 16:34 10,7 °C 10,6 °C 6,1 °C 94 % 1014,5 hPa 0,0 l/m² 0 min 0 min 18 W/m² 0,0 km/h (0 Bft) 97,83 %
08.11.2025 16:36 10,7 °C 10,6 °C 6,1 °C 94 % 1014,5 hPa 0,0 l/m² 0 min 0 min 16 W/m² 0,0 km/h (0 Bft) 60,38 %
08.11.2025 16:38 10,7 °C 10,6 °C 6,1 °C 94 % 1014,5 hPa 0,0 l/m² 0 min 0 min 16 W/m² 0,0 km/h (0 Bft) 97,56 %
08.11.2025 16:40 10,7 °C 10,0 °C 6,1 °C 94 % 1014,5 hPa 0,0 l/m² 0 min 0 min 14 W/m² 0,0 km/h (0 Bft) 97,83 %
08.11.2025 16:42 10,7 °C 10,0 °C 6,1 °C 94 % 1014,5 hPa 0,0 l/m² 0 min 0 min 10 W/m² 0,0 km/h (0 Bft) 96,23 %
08.11.2025 16:44 10,7 °C 10,0 °C 6,1 °C 94 % 1014,5 hPa 0,0 l/m² 0 min 0 min 9 W/m² 0,0 km/h (0 Bft) 97,56 %
08.11.2025 16:46 10,7 °C 10,0 °C 6,1 °C 94 % 1014,5 hPa 0,0 l/m² 0 min 0 min 7 W/m² 3,2 km/h (1 Bft) 96,43 %
08.11.2025 16:48 10,7 °C 10,0 °C 5,6 °C 94 % 1014,5 hPa 0,0 l/m² 0 min 0 min 6 W/m² 0,0 km/h (0 Bft) 97,73 %
08.11.2025 16:50 10,7 °C 10,0 °C 5,6 °C 94 % 1014,5 hPa 0,0 l/m² 0 min 0 min 5 W/m² 0,0 km/h (0 Bft) 95,12 %
08.11.2025 16:52 10,7 °C 10,0 °C 5,6 °C 93 % 1014,6 hPa 0,0 l/m² 0 min 0 min 3 W/m² 0,0 km/h (0 Bft) 98,15 %
08.11.2025 16:54 10,7 °C 10,0 °C 5,6 °C 93 % 1014,6 hPa 0,0 l/m² 0 min 0 min 0 W/m² 0,0 km/h (0 Bft) 97,44 %
08.11.2025 16:56 10,7 °C 10,0 °C 5,6 °C 93 % 1014,6 hPa 0,0 l/m² 0 min 0 min 0 W/m² 0,0 km/h (0 Bft) 97,87 %
08.11.2025 16:58 10,7 °C 9,4 °C 5,6 °C 93 % 1014,6 hPa 0,0 l/m² 0 min 0 min 0 W/m² 0,0 km/h (0 Bft) 94,55 %
08.11.2025 17:00 10,7 °C 9,4 °C 5,6 °C 93 % 1014,6 hPa 0,0 l/m² 0 min 0 min 0 W/m² 0,0 km/h (0 Bft) 100,00 %
08.11.2025 17:02 10,7 °C 9,4 °C 5,6 °C 93 % 1014,6 hPa 0,0 l/m² 0 min 0 min 0 W/m² 0,0 km/h (0 Bft) 97,78 %
08.11.2025 17:04 10,7 °C 10,0 °C 5,6 °C 93 % 1014,6 hPa 0,0 l/m² 0 min 0 min 0 W/m² 0,0 km/h (0 Bft) 100,00 %
08.11.2025 17:06 10,7 °C 10,0 °C 5,6 °C 93 % 1014,6 hPa 0,0 l/m² 0 min 0 min 0 W/m² 3,2 km/h (1 Bft) 100,00 %
08.11.2025 17:08 10,7 °C 10,0 °C 5,6 °C 93 % 1014,6 hPa 0,0 l/m² 0 min 0 min 0 W/m² 0,0 km/h (0 Bft) 100,00 %
08.11.2025 17:10 10,7 °C 10,0 °C 5,6 °C 93 % 1014,7 hPa 0,0 l/m² 0 min 0 min 0 W/m² 0,0 km/h (0 Bft) 100,00 %
08.11.2025 17:12 10,7 °C 10,0 °C 5,6 °C 93 % 1014,7 hPa 0,0 l/m² 0 min 0 min 0 W/m² 0,0 km/h (0 Bft) 97,73 %
08.11.2025 17:14 10,7 °C 10,0 °C 5,6 °C 93 % 1014,7 hPa 0,0 l/m² 0 min 0 min 0 W/m² 0,0 km/h (0 Bft) 98,00 %
08.11.2025 17:16 10,7 °C 9,4 °C 5,6 °C 93 % 1014,7 hPa 0,0 l/m² 0 min 0 min 0 W/m² 0,0 km/h (0 Bft) 100,00 %
08.11.2025 17:18 10,7 °C 9,4 °C 5,6 °C 93 % 1014,7 hPa 0,0 l/m² 0 min 0 min 0 W/m² 0,0 km/h (0 Bft) 100,00 %
08.11.2025 17:20 10,6 °C 9,4 °C 5,6 °C 93 % 1014,7 hPa 0,0 l/m² 0 min 0 min 0 W/m² 3,2 km/h (1 Bft) 100,00 %
08.11.2025 17:22 10,6 °C 9,4 °C 5,6 °C 93 % 1014,7 hPa 0,0 l/m² 0 min 0 min 0 W/m² 3,2 km/h (1 Bft) 97,67 %
08.11.2025 17:24 10,6 °C 10,0 °C 5,6 °C 93 % 1014,8 hPa 0,0 l/m² 0 min 0 min 0 W/m² 3,2 km/h (1 Bft) 98,04 %
08.11.2025 17:26 10,6 °C 10,0 °C 5,6 °C 93 % 1014,8 hPa 0,0 l/m² 0 min 0 min 0 W/m² 0,0 km/h (0 Bft) 97,83 %
08.11.2025 17:28 10,6 °C 10,0 °C 5,6 °C 93 % 1014,8 hPa 0,0 l/m² 0 min 0 min 0 W/m² 3,2 km/h (1 Bft) 98,11 %
08.11.2025 17:30 10,6 °C 10,0 °C 6,1 °C 93 % 1014,8 hPa 0,0 l/m² 0 min 0 min 0 W/m² 0,0 km/h (0 Bft) 100,00 %
08.11.2025 17:32 10,6 °C 10,0 °C 5,6 °C 93 % 1014,8 hPa 0,0 l/m² 0 min 0 min 0 W/m² 0,0 km/h (0 Bft) 95,35 %
08.11.2025 17:34 10,6 °C 10,0 °C 5,6 °C 93 % 1014,8 hPa 0,0 l/m² 0 min 0 min 0 W/m² 0,0 km/h (0 Bft) 98,04 %
08.11.2025 17:36 10,6 °C 10,0 °C 5,6 °C 93 % 1014,8 hPa 0,0 l/m² 0 min 0 min 0 W/m² 0,0 km/h (0 Bft) 97,83 %
08.11.2025 17:38 10,6 °C 10,0 °C 6,1 °C 93 % 1014,8 hPa 0,0 l/m² 0 min 0 min 0 W/m² 0,0 km/h (0 Bft) 98,18 %
08.11.2025 17:40 10,6 °C 10,0 °C 6,1 °C 93 % 1014,8 hPa 0,0 l/m² 0 min 0 min 0 W/m² 0,0 km/h (0 Bft) 100,00 %
08.11.2025 17:42 10,6 °C 10,0 °C 6,1 °C 93 % 1014,8 hPa 0,0 l/m² 0 min 0 min 0 W/m² 0,0 km/h (0 Bft) 93,33 %
08.11.2025 17:44 10,6 °C 10,0 °C 6,1 °C 93 % 1014,9 hPa 0,0 l/m² 0 min 0 min 0 W/m² 0,0 km/h (0 Bft) 95,92 %
08.11.2025 17:46 10,6 °C 10,0 °C 5,6 °C 93 % 1014,9 hPa 0,0 l/m² 0 min 0 min 0 W/m² 0,0 km/h (0 Bft) 97,83 %
08.11.2025 17:48 10,6 °C 10,0 °C 5,6 °C 93 % 1014,9 hPa 0,0 l/m² 0 min 0 min 0 W/m² 3,2 km/h (1 Bft) 98,15 %
08.11.2025 17:50 10,6 °C 9,4 °C 5,6 °C 93 % 1014,9 hPa 0,0 l/m² 0 min 0 min 0 W/m² 0,0 km/h (0 Bft) 97,50 %
08.11.2025 17:52 10,6 °C 9,4 °C 5,6 °C 93 % 1014,9 hPa 0,0 l/m² 0 min 0 min 0 W/m² 0,0 km/h (0 Bft) 95,45 %
08.11.2025 17:54 10,6 °C 9,4 °C 5,6 °C 93 % 1014,9 hPa 0,0 l/m² 0 min 0 min 0 W/m² 0,0 km/h (0 Bft) 94,00 %
08.11.2025 17:56 10,6 °C 9,4 °C 5,6 °C 93 % 1014,9 hPa 0,0 l/m² 0 min 0 min 0 W/m² 0,0 km/h (0 Bft) 95,56 %
08.11.2025 17:58 10,6 °C 9,4 °C 5,6 °C 93 % 1014,9 hPa 0,0 l/m² 0 min 0 min 0 W/m² 0,0 km/h (0 Bft) 94,55 %
08.11.2025 18:00 10,6 °C 9,4 °C 5,6 °C 93 % 1014,9 hPa 0,0 l/m² 0 min 0 min 0 W/m² 0,0 km/h (0 Bft) 97,56 %
08.11.2025 18:02 10,6 °C 9,4 °C 5,6 °C 93 % 1014,9 hPa 0,0 l/m² 0 min 0 min 0 W/m² 0,0 km/h (0 Bft) 95,45 %
08.11.2025 18:04 10,6 °C 9,4 °C 5,6 °C 93 % 1015,0 hPa 0,0 l/m² 0 min 0 min 0 W/m² 0,0 km/h (0 Bft) 90,20 %
08.11.2025 18:08 10,6 °C 9,4 °C 5,6 °C 93 % 1015,0 hPa 0,0 l/m² 0 min 0 min 0 W/m² 0,0 km/h (0 Bft) 95,60 %
08.11.2025 18:10 10,6 °C 9,4 °C 5,6 °C 93 % 1015,0 hPa 0,0 l/m² 0 min 0 min 0 W/m² 0,0 km/h (0 Bft) 98,00 %
08.11.2025 18:12 10,5 °C 9,4 °C 5,6 °C 93 % 1015,0 hPa 0,0 l/m² 0 min 0 min 0 W/m² 0,0 km/h (0 Bft) 95,74 %
08.11.2025 18:14 10,5 °C 9,4 °C 5,6 °C 93 % 1015,0 hPa 0,0 l/m² 0 min 0 min 0 W/m² 0,0 km/h (0 Bft) 95,65 %
08.11.2025 18:16 10,5 °C 9,4 °C 5,6 °C 93 % 1015,0 hPa 0,0 l/m² 0 min 0 min 0 W/m² 0,0 km/h (0 Bft) 97,67 %
08.11.2025 18:18 10,5 °C 9,4 °C 5,6 °C 93 % 1015,0 hPa 0,0 l/m² 0 min 0 min 0 W/m² 0,0 km/h (0 Bft) 98,04 %
08.11.2025 18:20 10,4 °C 9,4 °C 5,6 °C 93 % 1015,0 hPa 0,0 l/m² 0 min 0 min 0 W/m² 0,0 km/h (0 Bft) 97,78 %
08.11.2025 18:22 10,4 °C 9,4 °C 5,6 °C 93 % 1015,0 hPa 0,0 l/m² 0 min 0 min 0 W/m² 0,0 km/h (0 Bft) 97,96 %
08.11.2025 18:24 10,4 °C 9,4 °C 5,6 °C 93 % 1015,0 hPa 0,0 l/m² 0 min 0 min 0 W/m² 0,0 km/h (0 Bft) 97,87 %
08.11.2025 18:26 10,4 °C 9,4 °C 5,6 °C 93 % 1015,0 hPa 0,0 l/m² 0 min 0 min 0 W/m² 0,0 km/h (0 Bft) 97,67 %
08.11.2025 18:28 10,4 °C 9,4 °C 5,6 °C 93 % 1015,0 hPa 0,0 l/m² 0 min 0 min 0 W/m² 0,0 km/h (0 Bft) 98,00 %
08.11.2025 18:30 10,4 °C 9,4 °C 5,6 °C 93 % 1015,0 hPa 0,0 l/m² 0 min 0 min 0 W/m² 0,0 km/h (0 Bft) 95,74 %
08.11.2025 18:32 10,4 °C 9,4 °C 5,6 °C 93 % 1015,0 hPa 0,0 l/m² 0 min 0 min 0 W/m² 0,0 km/h (0 Bft) 95,45 %
08.11.2025 18:34 10,4 °C 9,4 °C 5,6 °C 93 % 1015,0 hPa 0,0 l/m² 0 min 0 min 0 W/m² 0,0 km/h (0 Bft) 98,00 %
08.11.2025 18:36 10,4 °C 9,4 °C 5,6 °C 93 % 1015,1 hPa 0,0 l/m² 0 min 0 min 0 W/m² 0,0 km/h (0 Bft) 100,00 %
08.11.2025 18:38 10,4 °C 9,4 °C 5,6 °C 94 % 1015,1 hPa 0,0 l/m² 0 min 0 min 0 W/m² 0,0 km/h (0 Bft) 97,73 %
08.11.2025 18:40 10,4 °C 9,4 °C 5,6 °C 94 % 1015,1 hPa 0,0 l/m² 0 min 0 min 0 W/m² 0,0 km/h (0 Bft) 100,00 %
08.11.2025 18:42 10,4 °C 9,4 °C 5,6 °C 94 % 1015,2 hPa 0,0 l/m² 0 min 0 min 0 W/m² 0,0 km/h (0 Bft) 100,00 %
08.11.2025 18:44 10,4 °C 9,4 °C 5,6 °C 94 % 1015,2 hPa 0,0 l/m² 0 min 0 min 0 W/m² 0,0 km/h (0 Bft) 100,00 %
08.11.2025 18:46 10,4 °C 9,4 °C 5,6 °C 94 % 1015,2 hPa 0,0 l/m² 0 min 0 min 0 W/m² 0,0 km/h (0 Bft) 100,00 %
08.11.2025 18:48 10,4 °C 9,4 °C 5,6 °C 94 % 1015,2 hPa 0,0 l/m² 0 min 0 min 0 W/m² 0,0 km/h (0 Bft) 100,00 %
08.11.2025 18:50 10,3 °C 9,4 °C 5,6 °C 94 % 1015,2 hPa 0,0 l/m² 0 min 0 min 0 W/m² 0,0 km/h (0 Bft) 100,00 %
08.11.2025 18:52 10,4 °C 9,4 °C 5,6 °C 94 % 1015,2 hPa 0,0 l/m² 0 min 0 min 0 W/m² 0,0 km/h (0 Bft) 97,78 %
08.11.2025 18:54 10,3 °C 9,4 °C 5,6 °C 94 % 1015,1 hPa 0,0 l/m² 0 min 0 min 0 W/m² 0,0 km/h (0 Bft) 100,00 %
08.11.2025 18:56 10,4 °C 9,4 °C 5,6 °C 94 % 1015,2 hPa 0,0 l/m² 0 min 0 min 0 W/m² 0,0 km/h (0 Bft) 100,00 %
08.11.2025 18:58 10,4 °C 9,4 °C 5,6 °C 94 % 1015,2 hPa 0,0 l/m² 0 min 0 min 0 W/m² 0,0 km/h (0 Bft) 100,00 %
08.11.2025 19:00 10,4 °C 9,4 °C 5,6 °C 94 % 1015,2 hPa 0,0 l/m² 0 min 0 min 0 W/m² 0,0 km/h (0 Bft) 100,00 %
08.11.2025 19:02 10,4 °C 9,4 °C 5,6 °C 94 % 1015,2 hPa 0,0 l/m² 0 min 0 min 0 W/m² 0,0 km/h (0 Bft) 97,87 %
08.11.2025 19:04 10,3 °C 9,4 °C 5,6 °C 94 % 1015,2 hPa 0,0 l/m² 0 min 0 min 0 W/m² 0,0 km/h (0 Bft) 100,00 %
08.11.2025 19:06 10,4 °C 10,0 °C 5,6 °C 94 % 1015,2 hPa 0,0 l/m² 0 min 0 min 0 W/m² 0,0 km/h (0 Bft) 98,11 %
08.11.2025 19:08 10,4 °C 10,0 °C 5,6 °C 94 % 1015,2 hPa 0,0 l/m² 0 min 0 min 0 W/m² 0,0 km/h (0 Bft) 97,73 %
08.11.2025 19:10 10,4 °C 9,4 °C 5,6 °C 94 % 1015,2 hPa 0,0 l/m² 0 min 0 min 0 W/m² 0,0 km/h (0 Bft) 97,37 %
08.11.2025 19:12 10,4 °C 9,4 °C 5,6 °C 94 % 1015,2 hPa 0,0 l/m² 0 min 0 min 0 W/m² 0,0 km/h (0 Bft) 98,28 %
08.11.2025 19:14 10,4 °C 9,4 °C 5,6 °C 94 % 1015,2 hPa 0,0 l/m² 0 min 0 min 0 W/m² 0,0 km/h (0 Bft) 95,24 %
08.11.2025 19:16 10,4 °C 9,4 °C 5,6 °C 94 % 1015,3 hPa 0,0 l/m² 0 min 0 min 0 W/m² 0,0 km/h (0 Bft) 96,15 %
08.11.2025 19:18 10,3 °C 9,4 °C 5,6 °C 94 % 1015,3 hPa 0,0 l/m² 0 min 0 min 0 W/m² 0,0 km/h (0 Bft) 97,56 %
08.11.2025 19:20 10,4 °C 10,0 °C 5,6 °C 94 % 1015,3 hPa 0,0 l/m² 0 min 0 min 0 W/m² 0,0 km/h (0 Bft) 98,11 %
08.11.2025 19:22 10,3 °C 10,0 °C 5,6 °C 94 % 1015,3 hPa 0,0 l/m² 0 min 0 min 0 W/m² 0,0 km/h (0 Bft) 97,56 %
08.11.2025 19:24 10,3 °C 10,0 °C 5,6 °C 94 % 1015,4 hPa 0,0 l/m² 0 min 0 min 0 W/m² 0,0 km/h (0 Bft) 96,15 %
08.11.2025 19:26 10,3 °C 9,4 °C 5,6 °C 94 % 1015,4 hPa 0,0 l/m² 0 min 0 min 0 W/m² 0,0 km/h (0 Bft) 95,24 %
08.11.2025 19:28 10,3 °C 9,4 °C 5,6 °C 94 % 1015,4 hPa 0,0 l/m² 0 min 0 min 0 W/m² 0,0 km/h (0 Bft) 98,08 %
08.11.2025 19:30 10,3 °C 9,4 °C 5,6 °C 94 % 1015,3 hPa 0,0 l/m² 0 min 0 min 0 W/m² 0,0 km/h (0 Bft) 97,56 %
08.11.2025 19:32 10,3 °C 9,4 °C 5,6 °C 94 % 1015,3 hPa 0,0 l/m² 0 min 0 min 0 W/m² 0,0 km/h (0 Bft) 96,23 %
08.11.2025 19:34 10,3 °C 10,0 °C 5,6 °C 94 % 1015,4 hPa 0,0 l/m² 0 min 0 min 0 W/m² 0,0 km/h (0 Bft) 92,86 %
08.11.2025 19:36 10,3 °C 10,0 °C 5,6 °C 94 % 1015,3 hPa 0,0 l/m² 0 min 0 min 0 W/m² 0,0 km/h (0 Bft) 98,04 %
08.11.2025 19:38 10,3 °C 10,0 °C 5,6 °C 94 % 1015,3 hPa 0,0 l/m² 0 min 0 min 0 W/m² 0,0 km/h (0 Bft) 95,56 %
08.11.2025 19:40 10,3 °C 10,0 °C 5,6 °C 94 % 1015,3 hPa 0,0 l/m² 0 min 0 min 0 W/m² 0,0 km/h (0 Bft) 94,59 %
08.11.2025 19:42 10,3 °C 10,0 °C 5,6 °C 94 % 1015,3 hPa 0,0 l/m² 0 min 0 min 0 W/m² 0,0 km/h (0 Bft) 96,55 %
08.11.2025 19:44 10,3 °C 10,0 °C 5,6 °C 94 % 1015,4 hPa 0,0 l/m² 0 min 0 min 0 W/m² 0,0 km/h (0 Bft) 95,35 %
08.11.2025 19:46 10,3 °C 10,0 °C 5,6 °C 94 % 1015,3 hPa 0,0 l/m² 0 min 0 min 0 W/m² 0,0 km/h (0 Bft) 96,08 %
08.11.2025 19:48 10,3 °C 10,0 °C 5,6 °C 94 % 1015,3 hPa 0,0 l/m² 0 min 0 min 0 W/m² 0,0 km/h (0 Bft) 93,33 %
08.11.2025 19:50 10,3 °C 10,0 °C 5,6 °C 94 % 1015,3 hPa 0,0 l/m² 0 min 0 min 0 W/m² 0,0 km/h (0 Bft) 94,74 %
08.11.2025 19:52 10,3 °C 10,0 °C 5,6 °C 94 % 1015,3 hPa 0,0 l/m² 0 min 0 min 0 W/m² 0,0 km/h (0 Bft) 94,74 %
08.11.2025 19:54 10,3 °C 9,4 °C 5,6 °C 94 % 1015,4 hPa 0,0 l/m² 0 min 0 min 0 W/m² 0,0 km/h (0 Bft) 92,86 %
08.11.2025 19:56 10,3 °C 9,4 °C 5,6 °C 94 % 1015,4 hPa 0,0 l/m² 0 min 0 min 0 W/m² 0,0 km/h (0 Bft) 98,11 %
08.11.2025 19:58 10,3 °C 10,0 °C 5,6 °C 94 % 1015,3 hPa 0,0 l/m² 0 min 0 min 0 W/m² 0,0 km/h (0 Bft) 97,73 %
08.11.2025 20:00 10,3 °C 10,0 °C 5,6 °C 94 % 1015,3 hPa 0,0 l/m² 0 min 0 min 0 W/m² 0,0 km/h (0 Bft) 97,37 %
08.11.2025 20:02 10,3 °C 9,4 °C 5,6 °C 94 % 1015,4 hPa 0,0 l/m² 0 min 0 min 0 W/m² 0,0 km/h (0 Bft) 94,83 %
08.11.2025 20:04 10,3 °C 9,4 °C 5,6 °C 94 % 1015,4 hPa 0,0 l/m² 0 min 0 min 0 W/m² 0,0 km/h (0 Bft) 97,30 %
08.11.2025 20:06 10,3 °C 9,4 °C 5,6 °C 94 % 1015,3 hPa 0,0 l/m² 0 min 0 min 0 W/m² 0,0 km/h (0 Bft) 91,53 %
08.11.2025 20:08 10,3 °C 9,4 °C 5,6 °C 94 % 1015,4 hPa 0,0 l/m² 0 min 0 min 0 W/m² 0,0 km/h (0 Bft) 97,67 %
08.11.2025 20:10 10,3 °C 9,4 °C 5,6 °C 94 % 1015,4 hPa 0,0 l/m² 0 min 0 min 0 W/m² 3,2 km/h (1 Bft) 92,31 %
08.11.2025 20:12 10,3 °C 9,4 °C 5,6 °C 94 % 1015,4 hPa 0,0 l/m² 0 min 0 min 0 W/m² 0,0 km/h (0 Bft) 100,00 %
08.11.2025 20:14 10,3 °C 9,4 °C 5,6 °C 94 % 1015,4 hPa 0,0 l/m² 0 min 0 min 0 W/m² 0,0 km/h (0 Bft) 98,18 %
08.11.2025 20:16 10,3 °C 9,4 °C 5,6 °C 94 % 1015,4 hPa 0,0 l/m² 0 min 0 min 0 W/m² 0,0 km/h (0 Bft) 100,00 %
08.11.2025 20:18 10,3 °C 9,4 °C 5,6 °C 94 % 1015,4 hPa 0,0 l/m² 0 min 0 min 0 W/m² 0,0 km/h (0 Bft) 56,25 %
08.11.2025 20:20 10,3 °C 9,4 °C 6,1 °C 94 % 1015,5 hPa 0,0 l/m² 0 min 0 min 0 W/m² 0,0 km/h (0 Bft) 100,00 %
08.11.2025 20:22 10,3 °C 9,4 °C 6,1 °C 94 % 1015,5 hPa 0,0 l/m² 0 min 0 min 0 W/m² 0,0 km/h (0 Bft) 100,00 %
08.11.2025 20:24 10,3 °C 9,4 °C 6,1 °C 94 % 1015,5 hPa 0,0 l/m² 0 min 0 min 0 W/m² 0,0 km/h (0 Bft) 100,00 %
08.11.2025 20:26 10,3 °C 9,4 °C 6,1 °C 94 % 1015,5 hPa 0,0 l/m² 0 min 0 min 0 W/m² 0,0 km/h (0 Bft) 98,08 %
08.11.2025 20:28 10,3 °C 9,4 °C 6,1 °C 94 % 1015,5 hPa 0,0 l/m² 0 min 0 min 0 W/m² 0,0 km/h (0 Bft) 97,62 %
08.11.2025 20:30 10,3 °C 9,4 °C 6,1 °C 94 % 1015,5 hPa 0,0 l/m² 0 min 0 min 0 W/m² 0,0 km/h (0 Bft) 97,50 %
08.11.2025 20:32 10,3 °C 9,4 °C 6,1 °C 94 % 1015,4 hPa 0,0 l/m² 0 min 0 min 0 W/m² 0,0 km/h (0 Bft) 94,74 %
08.11.2025 20:34 10,3 °C 9,4 °C 6,1 °C 94 % 1015,4 hPa 0,0 l/m² 0 min 0 min 0 W/m² 0,0 km/h (0 Bft) 97,30 %
08.11.2025 20:36 10,2 °C 9,4 °C 5,6 °C 94 % 1015,5 hPa 0,0 l/m² 0 min 0 min 0 W/m² 0,0 km/h (0 Bft) 94,83 %
08.11.2025 20:38 10,3 °C 9,4 °C 5,6 °C 94 % 1015,5 hPa 0,0 l/m² 0 min 0 min 0 W/m² 0,0 km/h (0 Bft) 97,56 %
08.11.2025 20:40 10,2 °C 9,4 °C 5,6 °C 94 % 1015,5 hPa 0,0 l/m² 0 min 0 min 0 W/m² 0,0 km/h (0 Bft) 98,11 %
08.11.2025 20:42 10,2 °C 9,4 °C 6,1 °C 94 % 1015,5 hPa 0,0 l/m² 0 min 0 min 0 W/m² 0,0 km/h (0 Bft) 97,73 %
08.11.2025 20:44 10,2 °C 9,4 °C 6,1 °C 94 % 1015,5 hPa 0,0 l/m² 0 min 0 min 0 W/m² 0,0 km/h (0 Bft) 94,74 %
08.11.2025 20:46 10,2 °C 9,4 °C 6,1 °C 94 % 1015,6 hPa 0,0 l/m² 0 min 0 min 0 W/m² 0,0 km/h (0 Bft) 96,55 %
08.11.2025 20:48 10,2 °C 9,4 °C 6,1 °C 94 % 1015,5 hPa 0,0 l/m² 0 min 0 min 0 W/m² 0,0 km/h (0 Bft) 95,24 %
08.11.2025 20:50 10,2 °C 9,4 °C 6,1 °C 94 % 1015,6 hPa 0,0 l/m² 0 min 0 min 0 W/m² 0,0 km/h (0 Bft) 97,50 %
08.11.2025 20:52 10,2 °C 9,4 °C 6,1 °C 94 % 1015,6 hPa 0,0 l/m² 0 min 0 min 0 W/m² 0,0 km/h (0 Bft) 96,36 %
08.11.2025 20:54 10,2 °C 9,4 °C 6,1 °C 94 % 1015,5 hPa 0,0 l/m² 0 min 0 min 0 W/m² 0,0 km/h (0 Bft) 94,87 %
08.11.2025 20:56 10,2 °C 9,4 °C 6,1 °C 94 % 1015,6 hPa 0,0 l/m² 0 min 0 min 0 W/m² 0,0 km/h (0 Bft) 94,83 %
08.11.2025 20:58 10,2 °C 9,4 °C 5,6 °C 94 % 1015,6 hPa 0,0 l/m² 0 min 0 min 0 W/m² 0,0 km/h (0 Bft) 97,67 %
08.11.2025 21:00 10,2 °C 9,4 °C 5,6 °C 94 % 1015,7 hPa 0,0 l/m² 0 min 0 min 0 W/m² 0,0 km/h (0 Bft) 98,04 %
08.11.2025 21:02 10,2 °C 9,4 °C 5,6 °C 94 % 1015,7 hPa 0,0 l/m² 0 min 0 min 0 W/m² 0,0 km/h (0 Bft) 97,73 %
08.11.2025 21:04 10,2 °C 9,4 °C 5,6 °C 94 % 1015,7 hPa 0,0 l/m² 0 min 0 min 0 W/m² 0,0 km/h (0 Bft) 97,50 %
08.11.2025 21:06 10,2 °C 9,4 °C 5,6 °C 94 % 1016,0 hPa 0,0 l/m² 0 min 0 min 0 W/m² 6,4 km/h (2 Bft) 98,18 %
08.11.2025 21:08 10,3 °C 9,4 °C 6,1 °C 94 % 1015,9 hPa 0,0 l/m² 0 min 0 min 0 W/m² 3,2 km/h (1 Bft) 97,44 %
08.11.2025 21:10 10,3 °C 9,4 °C 6,1 °C 94 % 1015,9 hPa 0,0 l/m² 0 min 0 min 0 W/m² 0,0 km/h (0 Bft) 100,00 %
08.11.2025 21:12 10,3 °C 9,4 °C 5,6 °C 94 % 1015,9 hPa 0,0 l/m² 0 min 0 min 0 W/m² 0,0 km/h (0 Bft) 100,00 %
08.11.2025 21:14 10,3 °C 9,4 °C 5,6 °C 94 % 1016,0 hPa 0,0 l/m² 0 min 2 min 0 W/m² 0,0 km/h (0 Bft) 100,00 %
08.11.2025 21:16 10,3 °C 9,4 °C 5,6 °C 94 % 1015,9 hPa 0,2 l/m² 0 min 2 min 0 W/m² 0,0 km/h (0 Bft) 100,00 %
08.11.2025 21:18 10,3 °C 9,4 °C 5,6 °C 94 % 1016,0 hPa 0,0 l/m² 0 min 2 min 0 W/m² 0,0 km/h (0 Bft) 98,21 %
08.11.2025 21:20 10,3 °C 9,4 °C 5,6 °C 94 % 1015,9 hPa 0,0 l/m² 0 min 0 min 0 W/m² 0,0 km/h (0 Bft) 100,00 %
08.11.2025 21:22 10,4 °C 9,4 °C 5,6 °C 94 % 1015,9 hPa 0,0 l/m² 0 min 2 min 0 W/m² 0,0 km/h (0 Bft) 98,18 %
08.11.2025 21:24 10,4 °C 9,4 °C 5,6 °C 94 % 1015,9 hPa 0,2 l/m² 0 min 2 min 0 W/m² 0,0 km/h (0 Bft) 97,37 %
08.11.2025 21:26 10,4 °C 9,4 °C 5,6 °C 94 % 1015,9 hPa 0,0 l/m² 0 min 0 min 0 W/m² 0,0 km/h (0 Bft) 100,00 %
08.11.2025 21:28 10,4 °C 9,4 °C 5,6 °C 94 % 1015,9 hPa 0,0 l/m² 0 min 0 min 0 W/m² 0,0 km/h (0 Bft) 100,00 %
08.11.2025 21:30 10,4 °C 9,4 °C 5,6 °C 95 % 1016,0 hPa 0,0 l/m² 0 min 0 min 0 W/m² 0,0 km/h (0 Bft) 96,43 %
08.11.2025 21:32 10,4 °C 9,4 °C 5,6 °C 95 % 1016,1 hPa 0,2 l/m² 0 min 0 min 0 W/m² 0,0 km/h (0 Bft) 97,37 %
08.11.2025 21:34 10,4 °C 9,4 °C 5,6 °C 95 % 1016,0 hPa 0,0 l/m² 0 min 0 min 0 W/m² 0,0 km/h (0 Bft) 98,18 %
08.11.2025 21:36 10,4 °C 9,4 °C 5,6 °C 95 % 1016,0 hPa 0,0 l/m² 0 min 0 min 0 W/m² 0,0 km/h (0 Bft) 94,74 %
08.11.2025 21:38 10,4 °C 9,4 °C 5,6 °C 95 % 1016,0 hPa 0,0 l/m² 0 min 0 min 0 W/m² 0,0 km/h (0 Bft) 96,43 %
08.11.2025 21:40 10,4 °C 9,4 °C 5,6 °C 95 % 1016,0 hPa 0,0 l/m² 0 min 0 min 0 W/m² 0,0 km/h (0 Bft) 100,00 %
08.11.2025 21:42 10,4 °C 9,4 °C 5,6 °C 95 % 1016,0 hPa 0,0 l/m² 0 min 0 min 0 W/m² 0,0 km/h (0 Bft) 96,36 %
08.11.2025 21:44 10,4 °C 9,4 °C 5,6 °C 95 % 1016,1 hPa 0,0 l/m² 0 min 0 min 0 W/m² 0,0 km/h (0 Bft) 100,00 %
08.11.2025 21:46 10,4 °C 9,4 °C 5,6 °C 95 % 1016,1 hPa 0,0 l/m² 0 min 0 min 0 W/m² 0,0 km/h (0 Bft) 96,30 %
08.11.2025 21:48 10,4 °C 9,4 °C 5,6 °C 95 % 1016,1 hPa 0,0 l/m² 0 min 0 min 0 W/m² 0,0 km/h (0 Bft) 94,87 %
08.11.2025 21:50 10,4 °C 9,4 °C 5,6 °C 95 % 1016,0 hPa 0,0 l/m² 0 min 0 min 0 W/m² 0,0 km/h (0 Bft) 98,18 %
08.11.2025 21:52 10,4 °C 9,4 °C 5,6 °C 95 % 1016,0 hPa 0,0 l/m² 0 min 0 min 0 W/m² 0,0 km/h (0 Bft) 97,44 %
08.11.2025 21:54 10,4 °C 9,4 °C 5,6 °C 95 % 1016,1 hPa 0,0 l/m² 0 min 0 min 0 W/m² 0,0 km/h (0 Bft) 98,21 %
08.11.2025 21:56 10,4 °C 9,4 °C 5,6 °C 95 % 1016,0 hPa 0,0 l/m² 0 min 0 min 0 W/m² 0,0 km/h (0 Bft) 97,37 %
08.11.2025 21:58 10,4 °C 9,4 °C 5,6 °C 95 % 1016,1 hPa 0,0 l/m² 0 min 0 min 0 W/m² 0,0 km/h (0 Bft) 98,21 %
08.11.2025 22:00 10,4 °C 9,4 °C 5,6 °C 95 % 1016,0 hPa 0,0 l/m² 0 min 0 min 0 W/m² 0,0 km/h (0 Bft) 94,59 %
08.11.2025 22:02 10,4 °C 9,4 °C 5,6 °C 95 % 1016,1 hPa 0,0 l/m² 0 min 0 min 0 W/m² 0,0 km/h (0 Bft) 98,21 %
08.11.2025 22:04 10,4 °C 9,4 °C 5,6 °C 95 % 1016,1 hPa 0,0 l/m² 0 min 0 min 0 W/m² 0,0 km/h (0 Bft) 97,56 %
08.11.2025 22:06 10,4 °C 9,4 °C 5,6 °C 95 % 1016,0 hPa 0,0 l/m² 0 min 0 min 0 W/m² 0,0 km/h (0 Bft) 97,87 %
08.11.2025 22:08 10,4 °C 9,4 °C 5,6 °C 95 % 1016,1 hPa 0,0 l/m² 0 min 0 min 0 W/m² 0,0 km/h (0 Bft) 97,78 %
08.11.2025 22:10 10,4 °C 9,4 °C 5,6 °C 95 % 1016,1 hPa 0,0 l/m² 0 min 0 min 0 W/m² 0,0 km/h (0 Bft) 95,83 %
08.11.2025 22:12 10,4 °C 9,4 °C 5,6 °C 95 % 1016,1 hPa 0,0 l/m² 0 min 0 min 0 W/m² 0,0 km/h (0 Bft) 98,18 %
08.11.2025 22:14 10,5 °C 9,4 °C 5,6 °C 95 % 1016,0 hPa 0,0 l/m² 0 min 0 min 0 W/m² 0,0 km/h (0 Bft) 97,44 %
08.11.2025 22:16 10,5 °C 9,4 °C 5,6 °C 95 % 1016,0 hPa 0,0 l/m² 0 min 0 min 0 W/m² 0,0 km/h (0 Bft) 98,15 %
08.11.2025 22:18 10,4 °C 9,4 °C 5,6 °C 95 % 1016,0 hPa 0,0 l/m² 0 min 0 min 0 W/m² 0,0 km/h (0 Bft) 95,00 %
08.11.2025 22:20 10,4 °C 9,4 °C 5,6 °C 95 % 1016,0 hPa 0,0 l/m² 0 min 0 min 0 W/m² 0,0 km/h (0 Bft) 98,11 %
08.11.2025 22:22 10,5 °C 9,4 °C 5,6 °C 95 % 1016,0 hPa 0,0 l/m² 0 min 0 min 0 W/m² 0,0 km/h (0 Bft) 97,50 %
08.11.2025 22:24 10,4 °C 9,4 °C 5,6 °C 95 % 1016,0 hPa 0,0 l/m² 0 min 0 min 0 W/m² 0,0 km/h (0 Bft) 96,30 %
08.11.2025 22:26 10,4 °C 9,4 °C 5,6 °C 95 % 1015,9 hPa 0,0 l/m² 0 min 0 min 0 W/m² 0,0 km/h (0 Bft) 100,00 %
08.11.2025 22:28 10,4 °C 9,4 °C 5,6 °C 95 % 1016,0 hPa 0,0 l/m² 0 min 0 min 0 W/m² 0,0 km/h (0 Bft) 94,34 %
08.11.2025 22:30 10,4 °C 9,4 °C 5,6 °C 95 % 1015,9 hPa 0,0 l/m² 0 min 0 min 0 W/m² 0,0 km/h (0 Bft) 97,56 %
08.11.2025 22:32 10,4 °C 9,4 °C 5,6 °C 95 % 1015,9 hPa 0,0 l/m² 0 min 0 min 0 W/m² 0,0 km/h (0 Bft) 98,11 %
08.11.2025 22:34 10,4 °C 9,4 °C 5,6 °C 95 % 1015,9 hPa 0,0 l/m² 0 min 0 min 0 W/m² 0,0 km/h (0 Bft) 97,50 %
08.11.2025 22:36 10,4 °C 9,4 °C 5,6 °C 95 % 1016,0 hPa 0,0 l/m² 0 min 0 min 0 W/m² 0,0 km/h (0 Bft) 97,87 %
08.11.2025 22:38 10,4 °C 9,4 °C 5,6 °C 95 % 1016,0 hPa 0,0 l/m² 0 min 0 min 0 W/m² 0,0 km/h (0 Bft) 97,78 %
08.11.2025 22:40 10,4 °C 9,4 °C 5,6 °C 95 % 1016,0 hPa 0,0 l/m² 0 min 0 min 0 W/m² 0,0 km/h (0 Bft) 97,96 %
08.11.2025 22:42 10,4 °C 9,4 °C 5,6 °C 95 % 1016,0 hPa 0,0 l/m² 0 min 0 min 0 W/m² 0,0 km/h (0 Bft) 96,36 %
08.11.2025 22:44 10,4 °C 9,4 °C 5,6 °C 95 % 1016,0 hPa 0,0 l/m² 0 min 0 min 0 W/m² 0,0 km/h (0 Bft) 100,00 %
08.11.2025 22:46 10,4 °C 9,4 °C 5,6 °C 95 % 1016,0 hPa 0,0 l/m² 0 min 0 min 0 W/m² 0,0 km/h (0 Bft) 94,44 %
08.11.2025 22:48 10,4 °C 9,4 °C 5,6 °C 95 % 1016,0 hPa 0,0 l/m² 0 min 0 min 0 W/m² 0,0 km/h (0 Bft) 100,00 %
08.11.2025 22:50 10,4 °C 9,4 °C 5,6 °C 96 % 1015,9 hPa 0,0 l/m² 0 min 0 min 0 W/m² 0,0 km/h (0 Bft) 97,87 %
08.11.2025 22:52 10,4 °C 9,4 °C 5,6 °C 96 % 1015,9 hPa 0,0 l/m² 0 min 0 min 0 W/m² 0,0 km/h (0 Bft) 100,00 %
08.11.2025 22:54 10,4 °C 9,4 °C 5,6 °C 96 % 1015,9 hPa 0,0 l/m² 0 min 0 min 0 W/m² 0,0 km/h (0 Bft) 100,00 %
08.11.2025 22:56 10,4 °C 9,4 °C 5,6 °C 96 % 1016,0 hPa 0,0 l/m² 0 min 0 min 0 W/m² 0,0 km/h (0 Bft) 97,78 %
08.11.2025 22:58 10,4 °C 9,4 °C 5,6 °C 96 % 1016,0 hPa 0,0 l/m² 0 min 0 min 0 W/m² 0,0 km/h (0 Bft) 97,92 %
08.11.2025 23:00 10,4 °C 9,4 °C 5,6 °C 96 % 1015,9 hPa 0,0 l/m² 0 min 0 min 0 W/m² 0,0 km/h (0 Bft) 97,73 %
08.11.2025 23:02 10,4 °C 9,4 °C 5,6 °C 96 % 1015,9 hPa 0,0 l/m² 0 min 0 min 0 W/m² 0,0 km/h (0 Bft) 96,00 %
08.11.2025 23:04 10,4 °C 9,4 °C 5,6 °C 96 % 1015,9 hPa 0,0 l/m² 0 min 0 min 0 W/m² 0,0 km/h (0 Bft) 97,73 %
08.11.2025 23:06 10,4 °C 9,4 °C 5,6 °C 96 % 1015,9 hPa 0,0 l/m² 0 min 0 min 0 W/m² 0,0 km/h (0 Bft) 96,15 %
08.11.2025 23:08 10,4 °C 9,4 °C 5,6 °C 96 % 1015,9 hPa 0,0 l/m² 0 min 0 min 0 W/m² 0,0 km/h (0 Bft) 97,87 %
08.11.2025 23:10 10,4 °C 9,4 °C 5,6 °C 96 % 1015,9 hPa 0,0 l/m² 0 min 0 min 0 W/m² 0,0 km/h (0 Bft) 95,56 %
08.11.2025 23:12 10,4 °C 9,4 °C 5,6 °C 96 % 1016,0 hPa 0,0 l/m² 0 min 0 min 0 W/m² 0,0 km/h (0 Bft) 95,92 %
08.11.2025 23:14 10,4 °C 9,4 °C 5,6 °C 96 % 1015,9 hPa 0,0 l/m² 0 min 0 min 0 W/m² 0,0 km/h (0 Bft) 97,73 %
08.11.2025 23:16 10,4 °C 9,4 °C 5,6 °C 96 % 1015,9 hPa 0,0 l/m² 0 min 0 min 0 W/m² 0,0 km/h (0 Bft) 98,00 %
08.11.2025 23:18 10,3 °C 8,9 °C 5,6 °C 96 % 1015,9 hPa 0,0 l/m² 0 min 0 min 0 W/m² 0,0 km/h (0 Bft) 97,62 %
08.11.2025 23:20 10,3 °C 8,9 °C 5,6 °C 96 % 1015,9 hPa 0,0 l/m² 0 min 0 min 0 W/m² 0,0 km/h (0 Bft) 98,04 %
08.11.2025 23:22 10,3 °C 8,9 °C 5,6 °C 96 % 1016,0 hPa 0,0 l/m² 0 min 0 min 0 W/m² 0,0 km/h (0 Bft) 93,62 %
08.11.2025 23:24 10,3 °C 8,9 °C 5,6 °C 96 % 1016,0 hPa 0,0 l/m² 0 min 0 min 0 W/m² 0,0 km/h (0 Bft) 95,45 %
08.11.2025 23:26 10,3 °C 8,9 °C 5,6 °C 96 % 1016,0 hPa 0,0 l/m² 0 min 0 min 0 W/m² 0,0 km/h (0 Bft) 96,00 %
08.11.2025 23:28 10,3 °C 8,9 °C 5,0 °C 96 % 1016,0 hPa 0,0 l/m² 0 min 0 min 0 W/m² 0,0 km/h (0 Bft) 92,86 %
08.11.2025 23:30 10,3 °C 8,9 °C 5,0 °C 96 % 1016,0 hPa 0,0 l/m² 0 min 0 min 0 W/m² 0,0 km/h (0 Bft) 96,08 %
08.11.2025 23:32 10,2 °C 8,9 °C 5,0 °C 96 % 1016,0 hPa 0,0 l/m² 0 min 0 min 0 W/m² 0,0 km/h (0 Bft) 95,35 %
08.11.2025 23:34 10,2 °C 8,9 °C 5,0 °C 96 % 1016,0 hPa 0,0 l/m² 0 min 0 min 0 W/m² 0,0 km/h (0 Bft) 94,12 %
08.11.2025 23:36 10,2 °C 8,9 °C 5,0 °C 96 % 1016,0 hPa 0,0 l/m² 0 min 0 min 0 W/m² 0,0 km/h (0 Bft) 89,36 %
08.11.2025 23:38 10,2 °C 8,9 °C 5,0 °C 96 % 1016,0 hPa 0,0 l/m² 0 min 0 min 0 W/m² 0,0 km/h (0 Bft) 97,73 %
08.11.2025 23:40 10,1 °C 8,9 °C 5,0 °C 96 % 1016,1 hPa 0,0 l/m² 0 min 0 min 0 W/m² 0,0 km/h (0 Bft) 98,00 %
08.11.2025 23:42 10,1 °C 8,9 °C 5,0 °C 96 % 1016,1 hPa 0,0 l/m² 0 min 0 min 0 W/m² 0,0 km/h (0 Bft) 95,24 %
08.11.2025 23:44 10,1 °C 8,9 °C 5,0 °C 96 % 1016,1 hPa 0,0 l/m² 0 min 0 min 0 W/m² 0,0 km/h (0 Bft) 94,12 %
08.11.2025 23:46 10,1 °C 8,9 °C 5,6 °C 96 % 1016,1 hPa 0,0 l/m² 0 min 0 min 0 W/m² 0,0 km/h (0 Bft) 97,56 %
08.11.2025 23:48 10,1 °C 8,9 °C 5,6 °C 96 % 1016,1 hPa 0,0 l/m² 0 min 0 min 0 W/m² 0,0 km/h (0 Bft) 98,08 %
08.11.2025 23:50 10,1 °C 9,4 °C 5,6 °C 96 % 1016,1 hPa 0,0 l/m² 0 min 0 min 0 W/m² 0,0 km/h (0 Bft) 97,92 %
08.11.2025 23:52 10,1 °C 9,4 °C 5,6 °C 96 % 1016,1 hPa 0,0 l/m² 0 min 0 min 0 W/m² 0,0 km/h (0 Bft) 97,73 %
08.11.2025 23:54 10,1 °C 9,4 °C 5,6 °C 96 % 1016,1 hPa 0,0 l/m² 0 min 0 min 0 W/m² 0,0 km/h (0 Bft) 97,96 %
08.11.2025 23:56 10,1 °C 9,4 °C 5,6 °C 96 % 1016,1 hPa 0,0 l/m² 0 min 0 min 0 W/m² 0,0 km/h (0 Bft) 100,00 %
08.11.2025 23:58 10,1 °C 9,4 °C 5,6 °C 96 % 1016,2 hPa 0,0 l/m² 0 min 0 min 0 W/m² 0,0 km/h (0 Bft) 100,00 %
_ Min-Zeit 04:40 04:34 03:14 00:00 00:00 - - - - 13:20 07:24
Minimum _ 4,3 °C 3,3 °C 0,6 °C 92 % 1012,4 hPa - - - - 0,0 km/h (0 Bft) 51,43 %
_ Max-Zeit 16:32 13:20 14:02 09:44 23:58 21:16 12:16 21:14 12:54 00:56 00:00
Maximum _ 10,7 °C 16,7 °C 6,1 °C 99 % 1016,2 hPa 0,2 l/m² 4 min 2 min 422 W/m² 19,3 km/h
S (3 Bft)
100,00 %
Durchschnitt _ 7,5 °C 7,3 °C 3,5 °C 96 % 1014,3 hPa #0,7 l/m² #1:14 h #10 min. 101 W/m² 5,2 km/h (1 Bft) 97,14 %
© 2025 W. Hausmann